W7WSW Weather Reports


time (UTC)temp
C
wind
direction
speed
KPH
gust
KPH
rain 1hr
cm
rain 24hr
cm
rain mn
cm
humidity
%
barometer
mb
20260506193219 11 281 9.7 19.3 0.00 0.00 0.00 86 1020.3
20260506193115 11 259 9.7 19.3 0.00 0.00 0.00 86 1020.3
20260506193015 11 229 9.7 19.3 0.00 0.00 0.00 86 1020.3
20260506192959 11 233 9.7 19.3 0.00 0.00 0.00 86 1020.3
20260506192815 11 228 9.7 19.3 0.00 0.00 0.00 86 1020.3
20260506192713 11 232 9.7 19.3 0.00 0.00 0.00 87 1020.3
20260506192607 11 243 8.0 19.3 0.00 0.00 0.00 87 1020.3
20260506192507 11 240 8.0 17.7 0.00 0.00 0.00 87 1020.2
20260506192407 11 228 8.0 17.7 0.00 0.00 0.00 87 1020.3
20260506192307 11 241 8.0 17.7 0.00 0.00 0.00 87 1020.2
20260506192206 11 257 6.4 17.7 0.00 0.00 0.00 87 1020.2
20260506192101 11 260 6.4 17.7 0.00 0.00 0.00 87 1020.2
20260506192000 11 284 6.4 16.1 0.00 0.00 0.00 87 1020.1
20260506191900 11 275 6.4 16.1 0.00 0.00 0.00 87 1020.2
20260506191801 11 271 6.4 16.1 0.00 0.00 0.00 87 1020.2
20260506191700 11 243 6.4 16.1 0.00 0.00 0.00 87 1020.2
20260506191557 11 276 8.0 16.1 0.00 0.00 0.00 88 1020.2
20260506191455 11 285 8.0 16.1 0.00 0.00 0.00 87 1020.2
20260506191355 11 256 8.0 16.1 0.00 0.00 0.00 88 1020.2
20260506191255 11 215 8.0 16.1 0.00 0.00 0.00 87 1020.2
20260506191155 11 288 8.0 16.1 0.00 0.00 0.00 87 1020.2
20260506191051 11 229 9.7 17.7 0.00 0.00 0.00 87 1020.2
20260506190949 11 229 9.7 17.7 0.00 0.00 0.00 87 1020.2
20260506190849 11 238 9.7 17.7 0.00 0.00 0.00 87 1020.2
20260506190749 11 255 9.7 17.7 0.00 0.00 0.00 87 1020.2
20260506190649 11 240 9.7 17.7 0.00 0.00 0.00 88 1020.2
20260506190543 11 225 8.0 17.7 0.00 0.00 0.00 88 1020.2
20260506190443 11 223 8.0 17.7 0.00 0.00 0.00 88 1020.2
20260506190343 11 262 8.0 17.7 0.00 0.00 0.00 88 1020.1
20260506190243 11 238 8.0 17.7 0.00 0.00 0.00 88 1020.1
20260506190142 11 248 8.0 17.7 0.00 0.00 0.00 88 1020.2
20260506190037 11 217 8.0 17.7 0.00 0.00 0.00 88 1020.2
20260506185937 11 255 8.0 17.7 0.00 0.00 0.00 88 1020.1
20260506185837 11 246 6.4 14.5 0.00 0.00 0.00 88 1020.1
20260506185737 11 246 6.4 14.5 0.00 0.00 0.00 88 1020.1
20260506185637 11 243 6.4 14.5 0.00 0.00 0.00 88 1020.0
20260506185531 11 263 6.4 14.5 0.00 0.00 0.00 88 1020.1
20260506185431 11 243 6.4 14.5 0.00 0.00 0.00 88 1020.0
20260506185231 11 246 6.4 14.5 0.00 0.00 0.00 88 1020.0
20260506185131 11 221 6.4 14.5 0.00 0.00 0.00 88 1020.0
20260506185025 11 202 6.4 14.5 0.00 0.00 0.00 88 1020.0
20260506184925 11 256 6.4 14.5 0.00 0.00 0.00 88 1020.0
20260506184825 11 240 6.4 14.5 0.00 0.00 0.00 88 1020.0
20260506184725 11 231 6.4 14.5 0.00 0.00 0.00 88 1020.0
20260506184624 11 271 6.4 14.5 0.00 0.00 0.00 88 1020.0
20260506184523 11 259 6.4 14.5 0.00 0.00 0.00 88 1020.0
20260506184423 11 248 6.4 14.5 0.00 0.00 0.00 88 1020.0
20260506184323 11 283 6.4 14.5 0.00 0.00 0.00 88 1020.1
20260506184221 11 242 6.4 14.5 0.00 0.00 0.00 88 1020.0
20260506184119 11 238 6.4 14.5 0.00 0.00 0.00 88 1020.1
20260506184013 11 238 6.4 14.5 0.00 0.00 0.00 88 1020.0
20260506183913 11 252 6.4 14.5 0.00 0.00 0.00 88 1020.0
20260506183813 11 274 6.4 14.5 0.00 0.00 0.00 88 1020.0
20260506183713 11 257 6.4 12.9 0.00 0.00 0.00 88 1020.0
20260506183613 11 246 4.8 12.9 0.00 0.00 0.00 88 1020.0
20260506183509 11 236 4.8 11.3 0.00 0.00 0.00 88 1020.0
20260506183409 11 244 4.8 11.3 0.00 0.00 0.00 88 1020.0
20260506183309 11 252 4.8 11.3 0.00 0.00 0.00 88 1020.0
20260506183209 11 251 4.8 11.3 0.00 0.00 0.00 88 1020.0
20260506183107 11 240 4.8 11.3 0.00 0.00 0.00 88 1020.0
20260506183001 11 263 4.8 11.3 0.00 0.00 0.00 88 1020.0
20260506182901 11 237 4.8 11.3 0.00 0.00 0.00 87 1020.0
20260506182801 11 225 4.8 11.3 0.00 0.00 0.00 87 1020.0
20260506182701 11 252 4.8 11.3 0.00 0.00 0.00 87 1019.9
20260506182600 11 252 4.8 11.3 0.00 0.00 0.00 87 1020.0
20260506182457 11 257 4.8 11.3 0.00 0.00 0.00 87 1019.9
20260506182355 11 286 4.8 11.3 0.00 0.00 0.00 87 1019.9
20260506182255 11 255 4.8 11.3 0.00 0.00 0.00 87 1019.8
20260506182155 11 236 4.8 9.7 0.00 0.00 0.00 87 1019.8
20260506182055 11 276 4.8 9.7 0.00 0.00 0.00 87 1019.8
20260506181953 11 291 4.8 11.3 0.00 0.00 0.00 87 1019.8
20260506181854 11 279 4.8 11.3 0.00 0.00 0.00 87 1019.8
20260506181753 11 277 4.8 11.3 0.00 0.00 0.00 87 1019.8
20260506181651 11 272 4.8 11.3 0.00 0.00 0.00 87 1019.8
20260506181549 11 248 4.8 11.3 0.00 0.00 0.00 87 1019.8
20260506181442 11 270 4.8 11.3 0.00 0.00 0.00 87 1019.8
20260506181343 11 235 4.8 11.3 0.00 0.00 0.00 87 1019.8
20260506181242 11 245 4.8 11.3 0.00 0.00 0.00 87 1019.8
20260506181143 11 264 4.8 14.5 0.00 0.00 0.00 87 1019.8
20260506181042 11 281 4.8 14.5 0.00 0.00 0.00 87 1019.8
20260506180937 11 261 4.8 14.5 0.00 0.00 0.00 87 1019.8
20260506180837 11 265 4.8 14.5 0.00 0.00 0.00 87 1019.8
20260506180737 11 265 4.8 14.5 0.00 0.00 0.00 87 1019.7
20260506180637 11 264 4.8 14.5 0.00 0.00 0.00 87 1019.8
20260506180536 11 294 4.8 14.5 0.00 0.00 0.00 87 1019.8
20260506180433 11 294 4.8 14.5 0.00 0.00 0.00 87 1019.8
20260506180331 11 294 4.8 14.5 0.00 0.00 0.00 87 1019.8
20260506180231 11 246 4.8 14.5 0.00 0.00 0.00 87 1019.8
20260506180131 11 252 4.8 12.9 0.00 0.00 0.00 87 1019.8
20260506180031 11 271 4.8 12.9 0.00 0.00 0.00 87 1019.8
20260506175924 11 271 4.8 12.9 0.00 0.00 0.00 87 1019.8
20260506175825 11 238 4.8 12.9 0.00 0.00 0.00 87 1019.8
20260506175725 11 250 3.2 12.9 0.00 0.00 0.00 87 1019.8
20260506175625 11 248 3.2 12.9 0.00 0.00 0.00 87 1019.8
20260506175525 11 281 3.2 12.9 0.00 0.00 0.00 87 1019.9
20260506175421 11 271 3.2 12.9 0.00 0.00 0.00 87 1019.9
20260506175319 11 237 4.8 12.9 0.00 0.00 0.00 87 1019.9
20260506175218 11 223 4.8 12.9 0.00 0.00 0.00 87 1019.9
20260506175118 11 223 4.8 14.5 0.00 0.00 0.00 87 1019.9
20260506175018 11 252 4.8 14.5 0.00 0.00 0.00 87 1019.9
20260506174915 11 238 4.8 14.5 0.00 0.00 0.00 87 1019.9
20260506174813 11 249 4.8 14.5 0.00 0.00 0.00 87 1019.8
20260506174713 11 244 6.4 14.5 0.00 0.00 0.00 87 1019.9
20260506174613 11 253 6.4 14.5 0.00 0.00 0.00 87 1019.8
20260506174513 11 261 6.4 14.5 0.00 0.00 0.00 87 1019.9
20260506174407 11 250 6.4 14.5 0.00 0.00 0.00 87 1019.9
20260506174307 11 255 6.4 14.5 0.00 0.00 0.00 87 1019.9
20260506174207 11 278 6.4 14.5 0.00 0.00 0.00 87 1019.8
20260506174106 11 235 6.4 12.9 0.00 0.00 0.00 87 1019.8
20260506174006 11 290 6.4 12.9 0.00 0.00 0.00 86 1019.8
20260506173905 11 265 6.4 12.9 0.00 0.00 0.00 86 1019.8
20260506173805 11 294 6.4 12.9 0.00 0.00 0.00 86 1019.8
20260506173703 11 248 6.4 12.9 0.00 0.00 0.00 86 1019.8
20260506173603 11 249 6.4 12.9 0.00 0.00 0.00 86 1019.8
20260506173500 11 270 6.4 12.9 0.00 0.00 0.00 86 1019.9
20260506173356 11 253 6.4 14.5 0.00 0.00 0.00 86 1019.8
20260506173255 11 258 6.4 14.5 0.00 0.00 0.00 86 1019.8
20260506173241 11 244 6.4 14.5 0.00 0.00 0.00 86 1019.8
20260506173055 11 277 6.4 14.5 0.00 0.00 0.00 86 1019.9
20260506172955 11 271 6.4 14.5 0.00 0.00 0.00 86 1019.9
20260506172849 11 252 6.4 14.5 0.00 0.00 0.00 86 1019.8
20260506172749 11 240 4.8 14.5 0.00 0.00 0.00 86 1019.9
20260506172649 11 258 6.4 14.5 0.00 0.00 0.00 86 1019.9
20260506172549 11 225 6.4 14.5 0.00 0.00 0.00 86 1019.9
20260506172449 11 246 4.8 14.5 0.00 0.00 0.00 86 1019.8
20260506172342 11 286 6.4 12.9 0.00 0.00 0.00 86 1019.8
20260506172242 11 269 4.8 12.9 0.00 0.00 0.00 86 1019.8
20260506172142 11 254 4.8 12.9 0.00 0.00 0.00 86 1019.8
20260506172042 11 246 4.8 12.9 0.00 0.00 0.00 86 1019.8
20260506171942 11 265 4.8 12.9 0.00 0.00 0.00 85 1019.8
20260506171839 11 286 6.4 12.9 0.00 0.00 0.00 85 1019.8
20260506171737 11 286 6.4 12.9 0.00 0.00 0.00 85 1019.8
20260506171637 11 269 6.4 16.1 0.00 0.00 0.00 85 1019.7
20260506171537 11 250 6.4 16.1 0.00 0.00 0.00 85 1019.7
20260506171437 11 258 6.4 16.1 0.00 0.00 0.00 85 1019.7
20260506171335 11 275 4.8 16.1 0.00 0.00 0.00 85 1019.7
20260506171235 11 273 4.8 16.1 0.00 0.00 0.00 85 1019.7
20260506171032 11 242 6.4 16.1 0.00 0.00 0.00 85 1019.7
20260506170930 11 232 6.4 16.1 0.00 0.00 0.00 85 1019.7
20260506170825 11 234 6.4 16.1 0.00 0.00 0.00 85 1019.6
20260506170725 11 240 6.4 16.1 0.00 0.00 0.00 85 1019.6
20260506170627 11 278 8.0 16.1 0.00 0.00 0.00 85 1019.6
20260506170525 11 289 8.0 16.1 0.00 0.00 0.00 85 1019.6
20260506170425 11 286 8.0 16.1 0.00 0.00 0.00 84 1019.6
20260506170321 11 289 8.0 16.1 0.00 0.00 0.00 84 1019.6
20260506170218 11 252 8.0 16.1 0.00 0.00 0.00 84 1019.6
20260506170118 11 242 8.0 16.1 0.00 0.00 0.00 84 1019.5
20260506170018 11 230 8.0 16.1 0.00 0.00 0.00 84 1019.5
20260506165918 11 254 6.4 16.1 0.00 0.00 0.00 84 1019.5
20260506165813 11 243 6.4 16.1 0.00 0.00 0.00 84 1019.5
20260506165713 11 236 6.4 16.1 0.00 0.00 0.00 84 1019.5
20260506165613 11 248 4.8 14.5 0.00 0.00 0.00 84 1019.5
20260506165513 11 219 4.8 14.5 0.00 0.00 0.00 84 1019.5
20260506165413 11 231 4.8 14.5 0.00 0.00 0.00 84 1019.5
20260506165311 11 252 4.8 14.5 0.00 0.00 0.00 84 1019.5
20260506165211 11 278 4.8 14.5 0.00 0.00 0.00 84 1019.5
20260506165110 11 240 4.8 12.9 0.00 0.00 0.00 83 1019.5
20260506165009 11 275 4.8 12.9 0.00 0.00 0.00 83 1019.5
20260506164906 11 270 4.8 12.9 0.00 0.00 0.00 83 1019.5
20260506164801 11 249 6.4 12.9 0.00 0.00 0.00 83 1019.5
20260506164701 11 265 4.8 12.9 0.00 0.00 0.00 83 1019.5
20260506164601 11 232 4.8 12.9 0.00 0.00 0.00 83 1019.5
20260506164501 11 271 4.8 12.9 0.00 0.00 0.00 83 1019.5
20260506164400 11 258 4.8 12.9 0.00 0.00 0.00 83 1019.5
20260506164255 11 262 4.8 12.9 0.00 0.00 0.00 83 1019.4
20260506164155 11 237 4.8 12.9 0.00 0.00 0.00 83 1019.4
20260506164055 11 238 4.8 12.9 0.00 0.00 0.00 83 1019.4
20260506163955 11 216 4.8 12.9 0.00 0.00 0.00 83 1019.4
20260506163854 11 253 4.8 12.9 0.00 0.00 0.00 83 1019.3
20260506163753 11 242 4.8 14.5 0.00 0.00 0.00 83 1019.4
20260506163652 11 237 4.8 14.5 0.00 0.00 0.00 83 1019.3
20260506163553 11 243 4.8 14.5 0.00 0.00 0.00 83 1019.3
20260506163451 11 256 4.8 14.5 0.00 0.00 0.00 83 1019.3
20260506163349 11 241 4.8 14.5 0.00 0.00 0.00 83 1019.3
20260506163242 11 242 4.8 14.5 0.00 0.00 0.00 83 1019.3
20260506163142 11 265 3.2 14.5 0.00 0.00 0.00 83 1019.3
20260506163042 11 260 3.2 14.5 0.00 0.00 0.00 83 1019.3
20260506162942 11 256 3.2 14.5 0.00 0.00 0.00 83 1019.4
20260506162842 11 265 3.2 14.5 0.00 0.00 0.00 83 1019.4
20260506162742 11 243 3.2 11.3 0.00 0.00 0.00 83 1019.3
20260506162725 11 266 3.2 11.3 0.00 0.00 0.00 83 1019.4
20260506162538 11 266 3.2 11.3 0.00 0.00 0.00 83 1019.3
20260506162438 11 250 3.2 11.3 0.00 0.00 0.00 83 1019.3
20260506162336 11 300 3.2 11.3 0.00 0.00 0.00 83 1019.4
20260506162233 11 271 3.2 11.3 0.00 0.00 0.00 83 1019.4
20260506162031 11 284 3.2 8.0 0.00 0.00 0.00 83 1019.4
20260506161931 11 257 1.6 6.4 0.00 0.00 0.00 83 1019.4
20260506161831 11 273 1.6 6.4 0.00 0.00 0.00 83 1019.3
20260506161726 11 256 1.6 6.4 0.00 0.00 0.00 83 1019.4
20260506161524 11 247 1.6 6.4 0.00 0.00 0.00 82 1019.4
20260506161425 11 247 3.2 8.0 0.00 0.00 0.00 82 1019.3
20260506161324 11 247 3.2 11.3 0.00 0.00 0.00 82 1019.3
20260506161223 11 247 3.2 11.3 0.00 0.00 0.00 82 1019.3
20260506161023 11 247 3.2 11.3 0.00 0.00 0.00 82 1019.3
20260506160921 11 247 3.2 11.3 0.00 0.00 0.00 82 1019.3
20260506160819 11 227 3.2 11.3 0.00 0.00 0.00 82 1019.3
20260506160730 11 281 3.2 11.3 0.00 0.00 0.00 82 1019.3
20260506160720 11 284 3.2 11.3 0.00 0.00 0.00 82 1019.3
20260506160519 11 269 3.2 11.3 0.00 0.00 0.00 82 1019.4
20260506160317 11 250 3.2 11.3 0.00 0.00 0.00 82 1019.3
20260506160217 11 269 3.2 11.3 0.00 0.00 0.00 82 1019.3
20260506160017 11 206 3.2 8.0 0.00 0.00 0.00 82 1019.3
20260506155917 11 206 3.2 8.0 0.00 0.00 0.00 82 1019.3
20260506155817 11 239 3.2 8.0 0.00 0.00 0.00 82 1019.3
20260506155717 11 250 3.2 8.0 0.00 0.00 0.00 82 1019.3
20260506155512 11 251 3.2 8.0 0.00 0.00 0.00 81 1019.3
20260506155412 11 243 3.2 16.1 0.00 0.00 0.00 81 1019.3
20260506155312 11 259 3.2 16.1 0.00 0.00 0.00 81 1019.3
20260506155212 11 273 3.2 16.1 0.00 0.00 0.00 81 1019.3
20260506155112 11 273 3.2 16.1 0.00 0.00 0.00 81 1019.2
20260506155012 11 273 3.2 16.1 0.00 0.00 0.00 81 1019.2
20260506154912 11 252 3.2 16.1 0.00 0.00 0.00 81 1019.2
20260506154812 11 273 3.2 16.1 0.00 0.00 0.00 81 1019.2
20260506154710 11 222 3.2 16.1 0.00 0.00 0.00 81 1019.2
20260506154610 11 222 3.2 16.1 0.00 0.00 0.00 81 1019.2
20260506154510 11 267 4.8 16.1 0.00 0.00 0.00 81 1019.2
20260506154410 11 234 4.8 16.1 0.00 0.00 0.00 81 1019.2
20260506154307 11 281 4.8 16.1 0.00 0.00 0.00 81 1019.2
20260506154207 11 249 4.8 16.1 0.00 0.00 0.00 81 1019.2
20260506154107 11 249 4.8 16.1 0.00 0.00 0.00 81 1019.2
20260506154007 11 255 4.8 16.1 0.00 0.00 0.00 81 1019.2
20260506153906 11 234 4.8 16.1 0.00 0.00 0.00 81 1019.2
20260506153806 11 238 4.8 16.1 0.00 0.00 0.00 81 1019.2
20260506153706 11 234 4.8 16.1 0.00 0.00 0.00 81 1019.2
20260506153606 11 236 4.8 16.1 0.00 0.00 0.00 81 1019.2
20260506153506 11 264 4.8 16.1 0.00 0.00 0.00 81 1019.2
20260506153406 11 230 3.2 11.3 0.00 0.00 0.00 81 1019.1
20260506153306 11 266 3.2 11.3 0.00 0.00 0.00 81 1019.1
20260506153221 11 266 3.2 11.3 0.00 0.00 0.00 81 1019.1
20260506153106 11 251 4.8 11.3 0.00 0.00 0.00 81 1019.2
20260506152906 11 263 3.2 11.3 0.00 0.00 0.00 81 1019.2
20260506152807 11 263 4.8 11.3 0.00 0.00 0.00 81 1019.2
20260506152706 11 263 3.2 11.3 0.00 0.00 0.00 81 1019.2
20260506152607 11 260 3.2 11.3 0.00 0.00 0.00 81 1019.2
20260506152506 11 252 3.2 11.3 0.00 0.00 0.00 81 1019.2
20260506152402 11 252 3.2 11.3 0.00 0.00 0.00 81 1019.2
20260506152305 11 240 3.2 11.3 0.00 0.00 0.00 81 1019.1
20260506152203 11 253 3.2 9.7 0.00 0.00 0.00 81 1019.1
20260506152103 11 233 3.2 9.7 0.00 0.00 0.00 81 1019.2
20260506152003 11 241 3.2 9.7 0.00 0.00 0.00 81 1019.1
20260506151903 11 230 3.2 9.7 0.00 0.00 0.00 81 1019.1
20260506151803 11 257 3.2 9.7 0.00 0.00 0.00 81 1019.0
20260506151702 11 232 3.2 9.7 0.00 0.00 0.00 81 1019.1
20260506151603 11 270 3.2 9.7 0.00 0.00 0.00 81 1019.0
20260506151503 11 271 3.2 9.7 0.00 0.00 0.00 81 1019.0
20260506151403 11 248 3.2 9.7 0.00 0.00 0.00 81 1019.0
20260506151303 11 286 4.8 9.7 0.00 0.00 0.00 81 1019.0
20260506151203 11 298 4.8 8.0 0.00 0.00 0.00 81 1019.0
20260506151102 11 273 4.8 8.0 0.00 0.00 0.00 81 1019.0
20260506151002 11 273 4.8 8.0 0.00 0.00 0.00 81 1019.0
20260506150902 11 292 3.2 8.0 0.00 0.00 0.00 81 1019.0
20260506150802 11 236 3.2 8.0 0.00 0.00 0.00 81 1019.0
20260506150703 11 264 3.2 8.0 0.00 0.00 0.00 81 1019.0
20260506150603 11 260 3.2 8.0 0.00 0.00 0.00 81 1019.0
20260506150458 11 215 3.2 11.3 0.00 0.00 0.00 81 1019.0
20260506150358 11 238 3.2 11.3 0.00 0.00 0.00 81 1019.0
20260506150303 11 242 3.2 11.3 0.00 0.00 0.00 81 1018.9
20260506150219 11 243 1.6 11.3 0.00 0.00 0.00 81 1019.0
20260506150058 11 250 1.6 11.3 0.00 0.00 0.00 81 1018.9
20260506145958 11 250 1.6 11.3 0.00 0.00 0.00 81 1018.9
20260506145858 11 250 1.6 11.3 0.00 0.00 0.00 81 1018.9
20260506145759 11 277 3.2 11.3 0.00 0.00 0.00 81 1018.8
20260506145658 11 28 3.2 11.3 0.00 0.00 0.00 81 1018.9
20260506145558 11 264 3.2 11.3 0.00 0.00 0.00 81 1018.9
20260506145459 11 272 3.2 11.3 0.00 0.00 0.00 81 1018.9
20260506145358 11 272 3.2 11.3 0.00 0.00 0.00 81 1018.9
20260506145258 11 272 3.2 11.3 0.00 0.00 0.00 81 1018.9
20260506145159 11 278 3.2 11.3 0.00 0.00 0.00 81 1018.9
20260506145058 11 261 3.2 11.3 0.00 0.00 0.00 81 1018.8
20260506144959 11 261 3.2 11.3 0.00 0.00 0.00 81 1018.8
20260506144859 11 261 3.2 11.3 0.00 0.00 0.00 81 1018.8
20260506144758 11 281 3.2 11.3 0.00 0.00 0.00 81 1018.8
20260506144659 11 253 1.6 11.3 0.00 0.00 0.00 81 1018.7
20260506144555 11 240 1.6 11.3 0.00 0.00 0.00 81 1018.7
20260506144454 11 254 1.6 8.0 0.00 0.00 0.00 81 1018.7
20260506144354 11 246 0.0 8.0 0.00 0.00 0.00 81 1018.7
20260506144255 11 269 0.0 11.3 0.00 0.00 0.00 81 1018.7
20260506144155 11 270 0.0 11.3 0.00 0.00 0.00 81 1018.7
20260506144055 11 270 0.0 11.3 0.00 0.00 0.00 81 1018.7
20260506143955 11 269 1.6 11.3 0.00 0.00 0.00 81 1018.7
20260506143855 11 269 1.6 11.3 0.00 0.00 0.00 81 1018.6
20260506143755 11 269 1.6 11.3 0.00 0.00 0.00 81 1018.6
20260506143655 11 269 1.6 11.3 0.00 0.00 0.00 81 1018.6
20260506143555 11 269 1.6 11.3 0.00 0.00 0.00 81 1018.5
20260506143455 11 269 1.6 11.3 0.00 0.00 0.00 81 1018.6
20260506143355 11 269 1.6 11.3 0.00 0.00 0.00 81 1018.5
20260506143254 11 270 1.6 14.5 0.00 0.00 0.00 81 1018.6
20260506143155 11 269 1.6 14.5 0.00 0.00 0.00 81 1018.6
20260506143054 11 270 1.6 14.5 0.00 0.00 0.00 81 1018.6
20260506142955 11 270 1.6 14.5 0.00 0.00 0.00 81 1018.5
20260506142855 11 250 1.6 14.5 0.00 0.00 0.00 81 1018.5
20260506142755 11 246 1.6 14.5 0.00 0.00 0.00 81 1018.4
20260506142652 11 246 1.6 14.5 0.00 0.00 0.00 81 1018.5
20260506142552 11 246 1.6 14.5 0.00 0.00 0.00 81 1018.5
20260506142451 11 271 1.6 14.5 0.00 0.00 0.00 81 1018.5
20260506142349 11 239 1.6 14.5 0.00 0.00 0.00 81 1018.5
20260506142249 11 245 1.6 6.4 0.00 0.00 0.00 81 1018.5
20260506142148 11 245 1.6 6.4 0.00 0.00 0.00 81 1018.5
20260506142046 11 245 1.6 6.4 0.00 0.00 0.00 81 1018.4
20260506141946 11 245 0.0 6.4 0.00 0.00 0.00 81 1018.4
20260506141845 11 245 0.0 6.4 0.00 0.00 0.00 81 1018.3
20260506141741 11 245 0.0 6.4 0.00 0.00 0.00 81 1018.3
20260506141640 11 245 0.0 6.4 0.00 0.00 0.00 81 1018.3
20260506141540 11 245 1.6 6.4 0.00 0.00 0.00 81 1018.4
20260506141440 11 245 1.6 6.4 0.00 0.00 0.00 81 1018.3
20260506141338 11 245 1.6 6.4 0.00 0.00 0.00 81 1018.3
20260506141235 11 245 1.6 6.4 0.00 0.00 0.00 81 1018.4
20260506141132 11 245 1.6 6.4 0.00 0.00 0.00 81 1018.4
20260506141030 11 245 1.6 6.4 0.00 0.00 0.00 81 1018.4
20260506140930 11 245 1.6 6.4 0.00 0.00 0.00 81 1018.4
20260506140830 11 245 1.6 9.7 0.00 0.00 0.00 81 1018.4
20260506140730 11 245 1.6 9.7 0.00 0.00 0.00 81 1018.4
20260506140630 11 245 1.6 9.7 0.00 0.00 0.00 81 1018.5
20260506140529 11 245 1.6 9.7 0.00 0.00 0.00 81 1018.5
20260506140429 11 251 1.6 9.7 0.00 0.00 0.00 81 1018.5
20260506140327 11 251 1.6 9.7 0.00 0.00 0.00 81 1018.4
20260506140223 11 208 1.6 9.7 0.00 0.00 0.00 81 1018.4
20260506140124 11 208 1.6 9.7 0.00 0.00 0.00 81 1018.4
20260506140022 11 208 1.6 9.7 0.00 0.00 0.00 81 1018.4
20260506135920 11 208 3.2 9.7 0.00 0.00 0.00 81 1018.4
20260506135820 11 249 3.2 9.7 0.00 0.00 0.00 81 1018.4
20260506135718 11 249 3.2 9.7 0.00 0.00 0.00 81 1018.4
20260506135613 11 249 3.2 9.7 0.00 0.00 0.00 81 1018.3
20260506135512 11 249 3.2 9.7 0.00 0.00 0.00 81 1018.4
20260506135412 11 249 3.2 11.3 0.00 0.00 0.00 81 1018.3
20260506135312 11 245 3.2 11.3 0.00 0.00 0.00 81 1018.3
20260506135212 11 270 3.2 11.3 0.00 0.00 0.00 81 1018.4
20260506135108 11 270 3.2 11.3 0.00 0.00 0.00 81 1018.4
20260506135008 11 256 3.2 11.3 0.00 0.00 0.00 81 1018.4
20260506134908 11 257 3.2 11.3 0.00 0.00 0.00 81 1018.3
20260506134809 11 259 3.2 11.3 0.00 0.00 0.00 81 1018.3
20260506134706 11 259 3.2 11.3 0.00 0.00 0.00 81 1018.3
20260506134602 11 259 3.2 11.3 0.00 0.00 0.00 81 1018.2
20260506134502 11 265 3.2 11.3 0.00 0.00 0.00 81 1018.3
20260506134402 11 241 4.8 11.3 0.00 0.00 0.00 81 1018.2
20260506134302 11 241 4.8 11.3 0.00 0.00 0.00 81 1018.2
20260506134202 11 241 4.8 11.3 0.00 0.00 0.00 81 1018.3
20260506134100 11 250 4.8 11.3 0.00 0.00 0.00 81 1018.2
20260506133958 11 245 4.8 11.3 0.00 0.00 0.00 81 1018.2
20260506133856 11 245 4.8 11.3 0.00 0.00 0.00 81 1018.1
20260506133756 11 244 4.8 11.3 0.00 0.00 0.00 81 1018.2
20260506133653 11 254 4.8 11.3 0.00 0.00 0.00 81 1018.2
20260506133547 11 251 3.2 11.3 0.00 0.00 0.00 81 1018.2
20260506133447 11 264 3.2 11.3 0.00 0.00 0.00 81 1018.1
20260506133344 11 275 3.2 11.3 0.00 0.00 0.00 81 1018.1
20260506133244 11 252 1.6 11.3 0.00 0.00 0.00 81 1018.0
20260506133143 11 244 1.6 11.3 0.00 0.00 0.00 81 1017.9
20260506133040 11 267 1.6 11.3 0.00 0.00 0.00 81 1017.9
20260506132938 11 267 1.6 11.3 0.00 0.00 0.00 81 1018.0
20260506132838 11 267 1.6 11.3 0.00 0.00 0.00 81 1018.0
20260506132738 11 253 0.0 11.3 0.00 0.00 0.00 81 1018.0
20260506132638 11 266 0.0 3.2 0.00 0.00 0.00 81 1017.9
20260506132432 11 266 1.6 6.4 0.00 0.00 0.00 81 1017.8
20260506132332 11 266 1.6 6.4 0.00 0.00 0.00 81 1017.9
20260506132232 11 266 1.6 6.4 0.00 0.00 0.00 81 1018.0
20260506132142 11 266 1.6 6.4 0.00 0.00 0.00 81 1018.0
20260506132132 11 266 1.6 6.4 0.00 0.00 0.00 81 1018.0
20260506131927 11 266 1.6 6.4 0.00 0.00 0.00 81 1018.0
20260506131827 11 266 1.6 6.4 0.00 0.00 0.00 81 1018.0
20260506131726 11 266 1.6 6.4 0.00 0.00 0.00 81 1018.0
20260506131626 11 266 0.0 6.4 0.00 0.00 0.00 81 1018.0
20260506131526 11 254 0.0 4.8 0.00 0.00 0.00 81 1018.0
20260506131424 11 254 0.0 4.8 0.00 0.00 0.00 81 1018.0
20260506131324 11 254 0.0 0.0 0.00 0.00 0.00 81 1018.0
20260506131222 11 254 0.0 0.0 0.00 0.00 0.00 81 1017.9
20260506131120 11 254 0.0 1.6 0.00 0.00 0.00 81 1017.9
20260506131021 11 254 0.0 1.6 0.00 0.00 0.00 81 1017.8
20260506130919 11 254 0.0 1.6 0.00 0.00 0.00 81 1017.8
20260506130818 11 254 0.0 1.6 0.00 0.00 0.00 81 1017.8
20260506130716 11 254 0.0 1.6 0.00 0.00 0.00 81 1017.8
20260506130631 11 254 0.0 1.6 0.00 0.00 0.00 81 1017.8
20260506130514 11 254 0.0 1.6 0.00 0.00 0.00 81 1017.8
20260506130412 11 254 0.0 1.6 0.00 0.00 0.00 81 1017.8
20260506130312 11 254 0.0 1.6 0.00 0.00 0.00 81 1017.8
20260506130211 11 254 0.0 3.2 0.00 0.00 0.00 81 1017.8
20260506130133 11 254 0.0 4.8 0.00 0.00 0.00 81 1017.7
20260506130005 11 254 0.0 4.8 0.00 0.00 0.00 81 1017.7
20260506125903 11 254 0.0 4.8 0.00 0.00 0.00 81 1017.8
20260506125805 11 254 0.0 4.8 0.00 0.00 0.00 81 1017.8
20260506125704 11 254 0.0 4.8 0.00 0.00 0.00 81 1017.8
20260506125605 11 254 0.0 4.8 0.00 0.00 0.00 81 1017.7
20260506125504 11 254 0.0 4.8 0.00 0.00 0.00 81 1017.8
20260506125404 11 254 1.6 4.8 0.00 0.00 0.00 81 1017.8
20260506125300 11 254 1.6 11.3 0.00 0.00 0.00 81 1017.8
20260506125158 11 254 1.6 11.3 0.00 0.00 0.00 81 1017.8
20260506125056 11 254 1.6 11.3 0.00 0.00 0.00 81 1017.7
20260506124956 11 254 1.6 11.3 0.00 0.00 0.00 81 1017.7
20260506124854 11 254 3.2 11.3 0.00 0.00 0.00 81 1017.8
20260506124753 11 254 3.2 11.3 0.00 0.00 0.00 81 1017.8
20260506124653 11 254 3.2 11.3 0.00 0.00 0.00 81 1017.8
20260506124549 11 254 3.2 11.3 0.00 0.00 0.00 81 1017.9
20260506124444 11 254 3.2 11.3 0.00 0.00 0.00 81 1017.8
20260506124344 11 252 3.2 11.3 0.00 0.00 0.00 81 1017.8
20260506124244 11 269 3.2 11.3 0.00 0.00 0.00 81 1017.8
20260506124144 11 269 3.2 11.3 0.00 0.00 0.00 81 1017.8
20260506124120 11 236 3.2 11.3 0.00 0.00 0.00 81 1017.9
20260506123944 11 236 3.2 11.3 0.00 0.00 0.00 81 1017.9
20260506123843 11 236 3.2 11.3 0.00 0.00 0.00 81 1017.9
20260506123743 11 219 3.2 11.3 0.00 0.00 0.00 81 1017.8
20260506123641 11 226 3.2 11.3 0.00 0.00 0.00 81 1017.8
20260506123619 11 224 3.2 11.3 0.00 0.00 0.00 81 1017.8
20260506123432 11 207 3.2 11.3 0.00 0.00 0.00 81 1017.9
20260506123332 11 227 1.6 8.0 0.00 0.00 0.00 81 1017.9
20260506123232 11 229 1.6 6.4 0.00 0.00 0.00 81 1017.9
20260506123132 11 240 1.6 4.8 0.00 0.00 0.00 81 1017.9
20260506123031 11 240 1.6 4.8 0.00 0.00 0.00 81 1017.9
20260506122928 11 240 3.2 4.8 0.00 0.00 0.00 81 1017.9
20260506122826 11 240 3.2 4.8 0.00 0.00 0.00 81 1017.8
20260506122726 11 240 3.2 4.8 0.00 0.00 0.00 81 1017.8
20260506122626 11 240 1.6 4.8 0.00 0.00 0.00 81 1017.9
20260506122525 11 240 1.6 4.8 0.00 0.00 0.00 81 1017.9
20260506122420 11 240 1.6 4.8 0.00 0.00 0.00 81 1017.9
20260506122320 11 240 1.6 4.8 0.00 0.00 0.00 81 1017.9
20260506122220 11 240 1.6 4.8 0.00 0.00 0.00 81 1017.8
20260506122120 11 240 1.6 4.8 0.00 0.00 0.00 81 1017.8
20260506122019 11 281 1.6 4.8 0.00 0.00 0.00 81 1017.7
20260506121916 11 281 3.2 6.4 0.00 0.00 0.00 81 1017.7
20260506121814 11 281 3.2 6.4 0.00 0.00 0.00 81 1017.8
20260506121715 11 281 3.2 6.4 0.00 0.00 0.00 81 1017.8
20260506121615 11 281 3.2 6.4 0.00 0.00 0.00 81 1017.8
20260506121404 11 269 3.2 11.3 0.00 0.00 0.00 81 1017.8
20260506121304 11 263 3.2 11.3 0.00 0.00 0.00 81 1017.8
20260506121203 11 263 3.2 11.3 0.00 0.00 0.00 81 1017.7
20260506121118 11 266 3.2 11.3 0.00 0.00 0.00 81 1017.7
20260506121108 11 236 3.2 11.3 0.00 0.00 0.00 81 1017.7
20260506120902 11 232 3.2 11.3 0.00 0.00 0.00 81 1017.8
20260506120802 11 232 4.8 11.3 0.00 0.00 0.00 81 1017.8
20260506120700 11 246 4.8 11.3 0.00 0.00 0.00 81 1017.8
20260506120600 11 246 4.8 11.3 0.00 0.00 0.00 81 1017.8
20260506120358 11 265 4.8 12.9 0.00 0.00 0.00 81 1017.9
20260506120256 11 258 4.8 12.9 0.00 0.00 0.00 81 1017.9
20260506120106 11 270 6.4 12.9 0.00 0.00 0.00 81 1017.9
20260506120056 11 245 6.4 12.9 0.00 0.00 0.00 81 1017.9
20260506115846 11 245 6.4 12.9 0.00 0.00 0.00 81 1017.8
20260506115746 11 257 6.4 12.9 0.00 0.00 0.00 81 1017.8
20260506115646 11 246 6.4 12.9 0.00 0.00 0.00 81 1017.8
20260506115546 11 222 4.8 12.9 0.00 0.00 0.00 81 1017.8
20260506115346 11 256 6.4 11.3 0.00 0.00 0.00 81 1017.8
20260506115243 11 248 4.8 11.3 0.00 0.00 0.00 81 1017.7
20260506115145 11 232 4.8 11.3 0.00 0.00 0.00 81 1017.7
20260506115042 11 257 4.8 11.3 0.00 0.00 0.00 81 1017.6
20260506114838 11 268 4.8 11.3 0.00 0.00 0.00 81 1017.6
20260506114738 11 279 4.8 11.3 0.00 0.00 0.00 81 1017.5
20260506114638 11 256 4.8 11.3 0.00 0.00 0.00 81 1017.5
20260506114536 11 256 4.8 11.3 0.00 0.00 0.00 81 1017.5
20260506114328 11 231 4.8 9.7 0.00 0.00 0.00 81 1017.6
20260506114228 11 259 4.8 9.7 0.00 0.00 0.00 81 1017.5
20260506114128 11 259 4.8 9.7 0.00 0.00 0.00 81 1017.5
20260506114028 11 232 4.8 9.7 0.00 0.00 0.00 81 1017.4
20260506113822 11 263 3.2 11.3 0.00 0.00 0.00 81 1017.4
20260506113722 11 263 3.2 11.3 0.00 0.00 0.00 81 1017.4
20260506113622 11 247 3.2 11.3 0.00 0.00 0.00 81 1017.4
20260506113522 11 275 3.2 11.3 0.00 0.00 0.00 81 1017.4
20260506113318 11 250 3.2 11.3 0.00 0.00 0.00 81 1017.4
20260506113218 11 265 3.2 11.3 0.00 0.00 0.00 81 1017.4
20260506113117 11 255 3.2 11.3 0.00 0.00 0.00 81 1017.4
20260506113018 11 231 3.2 11.3 0.00 0.00 0.00 81 1017.4
20260506112812 11 247 4.8 11.3 0.00 0.00 0.00 81 1017.6
20260506112710 11 247 4.8 11.3 0.00 0.00 0.00 81 1017.6
20260506112610 11 248 4.8 11.3 0.00 0.00 0.00 81 1017.6
20260506112510 11 245 4.8 11.3 0.00 0.00 0.00 81 1017.6
20260506112306 11 269 4.8 11.3 0.00 0.00 0.00 81 1017.6
20260506112204 11 262 3.2 11.3 0.00 0.00 0.00 81 1017.6
20260506112103 11 292 3.2 11.3 0.00 0.00 0.00 81 1017.6
20260506112004 11 260 3.2 11.3 0.00 0.00 0.00 81 1017.6
20260506111758 11 269 3.2 9.7 0.00 0.00 0.00 81 1017.6
20260506111658 11 232 3.2 9.7 0.00 0.00 0.00 81 1017.6
20260506111558 11 247 3.2 9.7 0.00 0.00 0.00 81 1017.6
20260506111458 11 242 3.2 9.7 0.00 0.00 0.00 81 1017.6
20260506111254 11 263 4.8 11.3 0.00 0.00 0.00 81 1017.6
20260506111152 11 263 4.8 11.3 0.00 0.00 0.00 81 1017.5
20260506111052 11 5 4.8 11.3 0.00 0.00 0.00 81 1017.6
20260506110952 11 271 4.8 11.3 0.00 0.00 0.00 81 1017.6
20260506110747 11 269 4.8 11.3 0.00 0.00 0.00 81 1017.6
20260506110647 11 269 4.8 11.3 0.00 0.00 0.00 81 1017.6
20260506110546 11 267 3.2 11.3 0.00 0.00 0.00 81 1017.6
20260506110446 11 270 3.2 11.3 0.00 0.00 0.00 81 1017.5
20260506110240 11 253 3.2 9.7 0.00 0.00 0.00 82 1017.5
20260506110140 11 257 3.2 9.7 0.00 0.00 0.00 82 1017.5
20260506110040 11 247 3.2 9.7 0.00 0.00 0.00 82 1017.5
20260506105940 11 247 3.2 9.7 0.00 0.00 0.00 82 1017.5
20260506105733 11 247 3.2 9.7 0.00 0.00 0.00 82 1017.6
20260506105633 11 280 3.2 11.3 0.00 0.00 0.00 82 1017.6
20260506105533 11 263 3.2 11.3 0.00 0.00 0.00 82 1017.5
20260506105434 11 263 3.2 11.3 0.00 0.00 0.00 82 1017.6
20260506105235 11 293 3.2 11.3 0.00 0.00 0.00 82 1017.5
20260506105132 11 293 3.2 11.3 0.00 0.00 0.00 82 1017.5
20260506105031 11 293 4.8 11.3 0.00 0.00 0.00 82 1017.5
20260506104930 11 293 4.8 11.3 0.00 0.00 0.00 82 1017.5
20260506104726 11 272 4.8 11.3 0.00 0.00 0.00 82 1017.5
20260506104626 11 267 4.8 11.3 0.00 0.00 0.00 82 1017.5
20260506104530 11 222 4.8 11.3 0.00 0.00 0.00 82 1017.5
20260506104424 11 222 4.8 11.3 0.00 0.00 0.00 82 1017.4
20260506104216 11 281 4.8 11.3 0.00 0.00 0.00 82 1017.5
20260506104116 11 242 4.8 11.3 0.00 0.00 0.00 82 1017.5
20260506104016 11 282 4.8 11.3 0.00 0.00 0.00 82 1017.4
20260506103930 11 258 4.8 8.0 0.00 0.00 0.00 82 1017.5
20260506103920 11 259 4.8 8.0 0.00 0.00 0.00 82 1017.4
20260506103710 11 229 4.8 9.7 0.00 0.00 0.00 82 1017.4
20260506103610 11 243 4.8 9.7 0.00 0.00 0.00 82 1017.4
20260506103511 11 258 3.2 9.7 0.00 0.00 0.00 82 1017.4
20260506103410 11 257 3.2 9.7 0.00 0.00 0.00 82 1017.3
20260506103205 11 256 3.2 9.7 0.00 0.00 0.00 82 1017.3
20260506103103 11 226 3.2 9.7 0.00 0.00 0.00 82 1017.4
20260506103004 11 238 3.2 9.7 0.00 0.00 0.00 82 1017.3
20260506102904 11 239 3.2 9.7 0.00 0.00 0.00 82 1017.3
20260506102700 11 261 1.6 6.4 0.00 0.00 0.00 82 1017.3
20260506102558 11 261 1.6 6.4 0.00 0.00 0.00 82 1017.3
20260506102458 11 261 1.6 6.4 0.00 0.00 0.00 82 1017.2
20260506102358 11 248 1.6 6.4 0.00 0.00 0.00 82 1017.2
20260506102158 11 248 1.6 6.4 0.00 0.00 0.00 82 1017.3
20260506102056 11 248 1.6 6.4 0.00 0.00 0.00 82 1017.2
20260506101956 11 248 1.6 6.4 0.00 0.00 0.00 82 1017.2
20260506101854 11 248 1.6 6.4 0.00 0.00 0.00 82 1017.2
20260506101652 11 248 3.2 6.4 0.00 0.00 0.00 82 1017.2
20260506101550 11 248 3.2 6.4 0.00 0.00 0.00 82 1017.2
20260506101450 11 248 3.2 6.4 0.00 0.00 0.00 82 1017.3
20260506101348 11 248 3.2 8.0 0.00 0.00 0.00 82 1017.2
20260506101142 11 248 3.2 8.0 0.00 0.00 0.00 82 1017.1
20260506101040 11 248 3.2 8.0 0.00 0.00 0.00 82 1017.1
20260506100940 11 250 3.2 8.0 0.00 0.00 0.00 82 1017.1
20260506100854 11 245 3.2 8.0 0.00 0.00 0.00 82 1017.1
20260506100844 11 292 3.2 8.0 0.00 0.00 0.00 82 1017.1
20260506100636 11 261 3.2 8.0 0.00 0.00 0.00 83 1017.1
20260506100536 11 271 3.2 8.0 0.00 0.00 0.00 82 1017.1
20260506100436 11 257 3.2 8.0 0.00 0.00 0.00 83 1017.1
20260506100336 11 261 3.2 6.4 0.00 0.00 0.00 82 1017.1
20260506100134 11 261 3.2 6.4 0.00 0.00 0.00 83 1017.1
20260506100032 11 277 3.2 6.4 0.00 0.00 0.00 83 1017.1
20260506095930 11 248 3.2 6.4 0.00 0.00 0.00 83 1017.1
20260506095830 11 274 3.2 6.4 0.00 0.00 0.00 83 1017.0
20260506095623 11 269 1.6 6.4 0.00 0.00 0.00 83 1017.0
20260506095522 11 260 1.6 6.4 0.00 0.00 0.00 83 1017.1
20260506095422 11 255 1.6 6.4 0.00 0.00 0.00 83 1017.1
20260506095322 11 274 1.6 4.8 0.00 0.00 0.00 83 1017.1
20260506095122 11 291 1.6 4.8 0.00 0.00 0.00 83 1017.1
20260506095020 11 291 1.6 4.8 0.00 0.00 0.00 83 1017.1
20260506094920 11 291 3.2 6.4 0.00 0.00 0.00 83 1017.1
20260506094818 11 291 3.2 6.4 0.00 0.00 0.00 83 1017.1
20260506094609 11 273 3.2 6.4 0.00 0.00 0.00 83 1017.1
20260506094509 11 283 3.2 6.4 0.00 0.00 0.00 83 1017.2
20260506094410 11 261 3.2 8.0 0.00 0.00 0.00 83 1017.1
20260506094323 11 261 3.2 8.0 0.00 0.00 0.00 83 1017.1
20260506094313 11 261 3.2 8.0 0.00 0.00 0.00 83 1017.2
20260506094106 11 261 3.2 11.3 0.00 0.00 0.00 83 1017.2
20260506094004 11 266 3.2 11.3 0.00 0.00 0.00 83 1017.2
20260506093904 11 241 4.8 11.3 0.00 0.00 0.00 83 1017.2
20260506093804 11 243 4.8 12.9 0.00 0.00 0.00 83 1017.2
20260506093602 11 275 4.8 12.9 0.00 0.00 0.00 83 1017.1
20260506093502 11 265 4.8 12.9 0.00 0.00 0.00 83 1017.2
20260506093402 11 269 4.8 12.9 0.00 0.00 0.00 83 1017.1
20260506093312 11 269 4.8 12.9 0.00 0.00 0.00 83 1017.1
20260506093301 11 260 4.8 12.9 0.00 0.00 0.00 83 1017.1
20260506093056 11 273 4.8 12.9 0.00 0.00 0.00 83 1017.1
20260506092956 11 261 4.8 12.9 0.00 0.00 0.00 83 1017.1
20260506092856 11 277 4.8 12.9 0.00 0.00 0.00 82 1017.1
20260506092754 11 256 4.8 12.9 0.00 0.00 0.00 83 1017.1
20260506092545 11 241 3.2 11.3 0.00 0.00 0.00 83 1017.2
20260506092446 11 232 4.8 11.3 0.00 0.00 0.00 83 1017.1
20260506092346 11 228 4.8 11.3 0.00 0.00 0.00 83 1017.1
20260506092300 11 228 4.8 11.3 0.00 0.00 0.00 83 1017.1
20260506092250 11 249 4.8 12.9 0.00 0.00 0.00 83 1017.1
20260506092041 11 228 4.8 12.9 0.00 0.00 0.00 83 1017.1
20260506091939 11 228 4.8 12.9 0.00 0.00 0.00 83 1017.1
20260506091839 11 250 4.8 12.9 0.00 0.00 0.00 83 1017.0
20260506091741 11 249 4.8 12.9 0.00 0.00 0.00 83 1017.0
20260506091534 11 258 4.8 12.9 0.00 0.00 0.00 83 1017.0
20260506091434 11 225 4.8 12.9 0.00 0.00 0.00 83 1017.0
20260506091334 11 258 4.8 12.9 0.00 0.00 0.00 83 1017.0
20260506091234 11 249 4.8 12.9 0.00 0.00 0.00 83 1017.0
20260506091027 11 232 4.8 9.7 0.00 0.00 0.00 83 1017.0
20260506090927 11 244 4.8 8.0 0.00 0.00 0.00 83 1017.0
20260506090827 11 244 4.8 8.0 0.00 0.00 0.00 83 1017.1
20260506090727 11 250 4.8 9.7 0.00 0.00 0.00 83 1017.0
20260506090528 11 273 4.8 9.7 0.00 0.00 0.00 83 1017.0
20260506090425 11 262 4.8 9.7 0.00 0.00 0.00 83 1017.0
20260506090326 11 248 4.8 9.7 0.00 0.00 0.00 83 1017.0
20260506090236 11 261 4.8 9.7 0.00 0.00 0.00 83 1017.0
20260506090226 11 233 4.8 9.7 0.00 0.00 0.00 83 1017.0
20260506090018 12 248 3.2 9.7 0.00 0.00 0.00 83 1017.0
20260506085918 12 233 3.2 9.7 0.00 0.00 0.00 83 1017.0
20260506085818 12 281 3.2 9.7 0.00 0.00 0.00 83 1017.0
20260506085718 12 244 3.2 8.0 0.00 0.00 0.00 83 1017.0
20260506085510 12 242 3.2 6.4 0.00 0.00 0.00 83 1016.9
20260506085410 12 257 3.2 6.4 0.00 0.00 0.00 83 1016.9
20260506085310 12 252 3.2 12.9 0.00 0.00 0.00 83 1016.9
20260506085210 12 252 3.2 12.9 0.00 0.00 0.00 83 1016.9
20260506085004 12 246 3.2 12.9 0.00 0.00 0.00 83 1016.9
20260506084903 12 246 3.2 12.9 0.00 0.00 0.00 83 1016.9
20260506084804 12 246 3.2 12.9 0.00 0.00 0.00 83 1016.9
20260506084704 12 244 3.2 12.9 0.00 0.00 0.00 83 1016.9
20260506084604 12 244 3.2 12.9 0.00 0.00 0.00 83 1016.9
20260506084504 12 244 3.2 12.9 0.00 0.00 0.00 82 1016.9
20260506084403 12 244 3.2 12.9 0.00 0.00 0.00 82 1016.8
20260506084300 12 247 3.2 11.3 0.00 0.00 0.00 82 1016.8
20260506084214 12 256 3.2 9.7 0.00 0.00 0.00 82 1016.9
20260506084100 12 247 3.2 6.4 0.00 0.00 0.00 82 1016.8
20260506084000 12 273 3.2 6.4 0.00 0.00 0.00 82 1016.8
20260506083859 12 273 3.2 6.4 0.00 0.00 0.00 82 1016.8
20260506083800 12 261 3.2 6.4 0.00 0.00 0.00 82 1016.8
20260506083700 12 225 3.2 6.4 0.00 0.00 0.00 82 1016.7
20260506083559 12 225 3.2 8.0 0.00 0.00 0.00 82 1016.8
20260506083459 12 250 3.2 8.0 0.00 0.00 0.00 82 1016.7
20260506083401 12 261 3.2 8.0 0.00 0.00 0.00 82 1016.8
20260506083300 12 257 3.2 8.0 0.00 0.00 0.00 82 1016.8
20260506083200 12 232 4.8 9.7 0.00 0.00 0.00 82 1016.8
20260506083100 12 240 4.8 14.5 0.00 0.00 0.00 82 1016.7
20260506082958 12 240 4.8 14.5 0.00 0.00 0.00 82 1016.7
20260506082856 12 257 4.8 14.5 0.00 0.00 0.00 82 1016.8
20260506082756 12 257 4.8 14.5 0.00 0.00 0.00 82 1016.7
20260506082653 12 241 4.8 14.5 0.00 0.00 0.00 82 1016.8
20260506082551 12 229 4.8 14.5 0.00 0.00 0.00 82 1016.8
20260506082452 12 229 4.8 14.5 0.00 0.00 0.00 82 1016.8
20260506082350 12 255 4.8 14.5 0.00 0.00 0.00 82 1016.7
20260506082250 12 272 4.8 14.5 0.00 0.00 0.00 82 1016.7
20260506082150 12 258 3.2 14.5 0.00 0.00 0.00 82 1016.7
20260506082050 12 246 4.8 8.0 0.00 0.00 0.00 82 1016.7
20260506081948 12 252 4.8 8.0 0.00 0.00 0.00 82 1016.8
20260506081848 12 219 3.2 8.0 0.00 0.00 0.00 82 1016.8
20260506081748 12 303 3.2 8.0 0.00 0.00 0.00 82 1016.8
20260506081709 12 284 3.2 12.9 0.00 0.00 0.00 82 1016.7
20260506081548 12 242 3.2 12.9 0.00 0.00 0.00 82 1016.8
20260506081448 12 272 3.2 12.9 0.00 0.00 0.00 82 1016.8
20260506081348 12 272 4.8 12.9 0.00 0.00 0.00 82 1016.8
20260506081248 12 278 4.8 12.9 0.00 0.00 0.00 82 1016.8
20260506081148 12 258 4.8 12.9 0.00 0.00 0.00 82 1016.8
20260506081048 12 252 4.8 12.9 0.00 0.00 0.00 82 1016.8
20260506080946 12 254 4.8 12.9 0.00 0.00 0.00 82 1016.8
20260506080845 12 250 4.8 12.9 0.00 0.00 0.00 82 1016.8
20260506080744 12 271 4.8 12.9 0.00 0.00 0.00 82 1016.8
20260506080710 12 250 4.8 12.9 0.00 0.00 0.00 82 1016.7
20260506080539 12 287 4.8 12.9 0.00 0.00 0.00 82 1016.7
20260506080439 12 287 4.8 12.9 0.00 0.00 0.00 82 1016.8
20260506080339 12 272 4.8 12.9 0.00 0.00 0.00 82 1016.8
20260506080239 12 269 4.8 12.9 0.00 0.00 0.00 82 1016.8
20260506080139 12 264 4.8 12.9 0.00 0.00 0.00 82 1016.7
20260506073521 12 261 3.2 6.4 0.00 0.00 0.00 82 1016.4
20260506073419 12 261 3.2 6.4 0.00 0.00 0.00 82 1016.4
20260506073319 12 261 3.2 6.4 0.00 0.00 0.00 82 1016.3
20260506073219 12 251 1.6 9.7 0.00 0.00 0.00 82 1016.3
20260506073119 12 272 1.6 9.7 0.00 0.00 0.00 82 1016.3
20260506073019 12 242 1.6 9.7 0.00 0.00 0.00 82 1016.3
20260506072919 12 242 1.6 9.7 0.00 0.00 0.00 82 1016.4
20260506072819 12 242 3.2 9.7 0.00 0.00 0.00 82 1016.3
20260506072719 12 242 1.6 9.7 0.00 0.00 0.00 82 1016.3
20260506072619 12 218 1.6 9.7 0.00 0.00 0.00 81 1016.3
20260506072519 12 246 1.6 9.7 0.00 0.00 0.00 81 1016.3
20260506072419 12 246 1.6 9.7 0.00 0.00 0.00 81 1016.2
20260506072319 12 246 1.6 9.7 0.00 0.00 0.00 81 1016.2
20260506072219 12 246 1.6 9.7 0.00 0.00 0.00 81 1016.2
20260506072158 12 246 1.6 9.7 0.00 0.00 0.00 81 1016.2
20260506072016 12 246 1.6 9.7 0.00 0.00 0.00 81 1016.2
20260506071916 12 246 1.6 11.3 0.00 0.00 0.00 81 1016.2
20260506071816 12 287 1.6 11.3 0.00 0.00 0.00 81 1016.2
20260506071716 12 287 3.2 11.3 0.00 0.00 0.00 81 1016.2
20260506071658 12 287 3.2 11.3 0.00 0.00 0.00 81 1016.2
20260506071515 12 287 3.2 11.3 0.00 0.00 0.00 81 1016.2
20260506071415 12 287 3.2 11.3 0.00 0.00 0.00 81 1016.2
20260506071315 12 287 3.2 11.3 0.00 0.00 0.00 81 1016.2
20260506071215 12 272 3.2 11.3 0.00 0.00 0.00 81 1016.2
20260506071116 12 243 3.2 11.3 0.00 0.00 0.00 81 1016.2
20260506071015 12 243 3.2 11.3 0.00 0.00 0.00 81 1016.3
20260506070916 12 243 3.2 11.3 0.00 0.00 0.00 81 1016.3
20260506070816 12 243 3.2 11.3 0.00 0.00 0.00 81 1016.3
20260506070716 12 243 3.2 11.3 0.00 0.00 0.00 81 1016.2
20260506070616 12 273 3.2 11.3 0.00 0.00 0.00 81 1016.3
20260506070516 12 273 3.2 11.3 0.00 0.00 0.00 81 1016.2
20260506070416 12 273 3.2 11.3 0.00 0.00 0.00 81 1016.3
20260506070316 12 253 3.2 11.3 0.00 0.00 0.00 81 1016.3
20260506070212 12 253 3.2 11.3 0.00 0.00 0.00 81 1016.3
20260506070109 12 263 3.2 11.3 0.00 0.00 0.00 81 1016.3
20260506062445 12 277 3.2 6.4 0.00 0.00 0.00 81 1016.2
20260506062342 12 210 3.2 4.8 0.00 0.00 0.00 81 1016.2
20260506062242 12 244 3.2 9.7 0.00 0.00 0.00 81 1016.3
20260506062156 12 244 3.2 9.7 0.00 0.00 0.00 81 1016.2
20260506062146 12 244 3.2 9.7 0.00 0.00 0.00 81 1016.3
20260506061937 12 249 3.2 9.7 0.00 0.00 0.00 81 1016.3
20260506061837 12 270 3.2 9.7 0.00 0.00 0.00 81 1016.2
20260506061737 12 270 1.6 9.7 0.00 0.00 0.00 81 1016.2
20260506061637 12 270 1.6 9.7 0.00 0.00 0.00 81 1016.2
20260506061537 12 259 1.6 9.7 0.00 0.00 0.00 81 1016.2
20260506061435 12 250 1.6 9.7 0.00 0.00 0.00 81 1016.2
20260506061335 12 249 1.6 9.7 0.00 0.00 0.00 81 1016.2
20260506061235 12 246 1.6 6.4 0.00 0.00 0.00 81 1016.2
20260506061132 12 239 1.6 6.4 0.00 0.00 0.00 81 1016.2
20260506061030 12 283 1.6 8.0 0.00 0.00 0.00 81 1016.2
20260506060927 12 283 1.6 8.0 0.00 0.00 0.00 81 1016.2
20260506060824 12 283 3.2 8.0 0.00 0.00 0.00 81 1016.2
20260506060725 12 283 3.2 9.7 0.00 0.00 0.00 81 1016.2
20260506060625 12 283 3.2 9.7 0.00 0.00 0.00 81 1016.2
20260506060525 12 283 3.2 9.7 0.00 0.00 0.00 81 1016.2
20260506060425 12 283 3.2 9.7 0.00 0.00 0.00 81 1016.2
20260506060323 12 283 3.2 9.7 0.00 0.00 0.00 81 1016.2
20260506060223 12 283 4.8 9.7 0.00 0.00 0.00 81 1016.1
20260506060121 12 292 4.8 9.7 0.00 0.00 0.00 81 1016.2
20260506051405 12 248 4.8 12.9 0.00 0.00 0.00 80 1016.1
20260506051304 12 271 4.8 12.9 0.00 0.00 0.00 80 1016.1
20260506051206 12 273 4.8 9.7 0.00 0.00 0.00 80 1016.1
20260506051134 12 251 4.8 9.7 0.00 0.00 0.00 80 1016.1
20260506051001 12 252 4.8 9.7 0.00 0.00 0.00 80 1016.2
20260506050901 12 243 4.8 9.7 0.00 0.00 0.00 80 1016.2
20260506050801 12 264 4.8 9.7 0.00 0.00 0.00 80 1016.1
20260506050701 12 244 4.8 9.7 0.00 0.00 0.00 80 1016.2
20260506050601 12 242 4.8 9.7 0.00 0.00 0.00 80 1016.1
20260506050501 12 244 4.8 12.9 0.00 0.00 0.00 80 1016.2
20260506050401 12 275 4.8 12.9 0.00 0.00 0.00 80 1016.1
20260506050301 12 242 4.8 12.9 0.00 0.00 0.00 80 1016.1
20260506050201 12 267 4.8 12.9 0.00 0.00 0.00 80 1016.1
20260506045057 12 236 4.8 12.9 0.00 0.00 0.00 80 1016.0
20260506044957 12 250 4.8 12.9 0.00 0.00 0.00 80 1016.0
20260506044857 12 250 4.8 12.9 0.00 0.00 0.00 80 1016.0
20260506044757 12 249 4.8 12.9 0.00 0.00 0.00 80 1016.1
20260506044657 12 268 4.8 12.9 0.00 0.00 0.00 80 1016.0
20260506044557 12 281 4.8 12.9 0.00 0.00 0.00 80 1016.1
20260506044357 12 288 6.4 12.9 0.00 0.00 0.00 80 1016.0
20260506044157 12 257 4.8 9.7 0.00 0.00 0.00 80 1016.0
20260506044058 12 271 4.8 9.7 0.00 0.00 0.00 80 1016.0
20260506043957 12 270 4.8 9.7 0.00 0.00 0.00 80 1016.0
20260506043857 12 244 4.8 9.7 0.00 0.00 0.00 80 1016.0
20260506043757 12 240 4.8 9.7 0.00 0.00 0.00 80 1016.0
20260506043657 12 236 3.2 9.7 0.00 0.00 0.00 80 1016.0
20260506043557 12 248 3.2 9.7 0.00 0.00 0.00 80 1016.0
20260506043457 12 230 3.2 8.0 0.00 0.00 0.00 80 1016.0
20260506043357 12 244 4.8 11.3 0.00 0.00 0.00 80 1016.0
20260506043253 12 238 4.8 14.5 0.00 0.00 0.00 80 1016.0
20260506043153 12 264 4.8 14.5 0.00 0.00 0.00 80 1016.0
20260506043135 12 264 6.4 14.5 0.00 0.00 0.00 80 1016.0
20260506042952 12 264 6.4 14.5 0.00 0.00 0.00 80 1015.9
20260506042854 12 264 6.4 14.5 0.00 0.00 0.00 80 1015.9
20260506042753 12 243 6.4 14.5 0.00 0.00 0.00 80 1016.0
20260506042654 12 252 6.4 14.5 0.00 0.00 0.00 80 1016.0
20260506042553 12 248 6.4 14.5 0.00 0.00 0.00 80 1015.9
20260506042452 12 250 6.4 14.5 0.00 0.00 0.00 80 1015.9
20260506042353 12 225 4.8 14.5 0.00 0.00 0.00 80 1015.9
20260506042254 12 247 4.8 12.9 0.00 0.00 0.00 80 1015.8
20260506042153 12 231 4.8 9.7 0.00 0.00 0.00 80 1015.9
20260506042134 12 221 4.8 9.7 0.00 0.00 0.00 80 1015.9
20260506041953 12 238 3.2 9.7 0.00 0.00 0.00 80 1015.8
20260506041853 12 260 3.2 8.0 0.00 0.00 0.00 80 1015.8
20260506041753 12 281 3.2 8.0 0.00 0.00 0.00 80 1015.8
20260506041653 12 244 3.2 8.0 0.00 0.00 0.00 80 1015.8
20260506041553 12 256 3.2 8.0 0.00 0.00 0.00 80 1015.7
20260506041453 12 256 3.2 8.0 0.00 0.00 0.00 80 1015.7
20260506041348 12 281 3.2 8.0 0.00 0.00 0.00 80 1015.7
20260506041249 12 295 3.2 8.0 0.00 0.00 0.00 80 1015.7
20260506041149 12 259 3.2 8.0 0.00 0.00 0.00 80 1015.7
20260506041049 12 249 3.2 8.0 0.00 0.00 0.00 80 1015.6
20260506040949 12 249 3.2 8.0 0.00 0.00 0.00 80 1015.7
20260506040849 12 239 3.2 8.0 0.00 0.00 0.00 80 1015.6
20260506040749 12 240 3.2 8.0 0.00 0.00 0.00 80 1015.6
20260506040649 12 243 1.6 8.0 0.00 0.00 0.00 80 1015.5
20260506040549 12 245 1.6 6.4 0.00 0.00 0.00 80 1015.5
20260506040450 12 255 1.6 4.8 0.00 0.00 0.00 80 1015.5
20260506040350 12 245 1.6 4.8 0.00 0.00 0.00 80 1015.5
20260506040249 12 245 1.6 16.1 0.00 0.00 0.00 80 1015.4
20260506040149 12 245 1.6 16.1 0.00 0.00 0.00 80 1015.5
20260506040049 12 245 1.6 16.1 0.00 0.00 0.00 80 1015.5
20260506035949 12 245 3.2 16.1 0.00 0.00 0.00 80 1015.5
20260506035849 12 245 3.2 16.1 0.00 0.00 0.00 80 1015.5
20260506035749 12 245 3.2 16.1 0.00 0.00 0.00 80 1015.5
20260506035649 12 245 4.8 16.1 0.00 0.00 0.00 80 1015.5
20260506035549 12 245 4.8 16.1 0.00 0.00 0.00 80 1015.4
20260506035445 12 245 6.4 16.1 0.00 0.00 0.00 80 1015.4
20260506035345 12 245 6.4 16.1 0.00 0.00 0.00 80 1015.5
20260506035245 12 247 6.4 16.1 0.00 0.00 0.00 80 1015.4
20260506035145 12 272 6.4 16.1 0.00 0.00 0.00 80 1015.4
20260506035045 12 244 6.4 16.1 0.00 0.00 0.00 80 1015.4
20260506034945 12 254 6.4 16.1 0.00 0.00 0.00 80 1015.4
20260506034845 12 247 6.4 16.1 0.00 0.00 0.00 80 1015.4
20260506034745 12 288 6.4 16.1 0.00 0.00 0.00 80 1015.4
20260506034645 12 261 4.8 16.1 0.00 0.00 0.00 80 1015.4
20260506034545 12 231 4.8 16.1 0.00 0.00 0.00 80 1015.4
20260506034445 12 244 4.8 16.1 0.00 0.00 0.00 80 1015.3
20260506034344 12 236 3.2 16.1 0.00 0.00 0.00 80 1015.3
20260506034243 12 268 3.2 12.9 0.00 0.00 0.00 80 1015.3
20260506034143 12 235 3.2 12.9 0.00 0.00 0.00 80 1015.2
20260506034042 12 235 3.2 12.9 0.00 0.00 0.00 80 1015.2
20260506033941 12 246 3.2 12.9 0.00 0.00 0.00 80 1015.2
20260506033838 12 240 3.2 12.9 0.00 0.00 0.00 80 1015.2
20260506033736 12 240 3.2 12.9 0.00 0.00 0.00 80 1015.2
20260506033637 12 292 3.2 12.9 0.00 0.00 0.00 80 1015.2
20260506033537 12 292 3.2 12.9 0.00 0.00 0.00 80 1015.1
20260506033436 12 265 4.8 12.9 0.00 0.00 0.00 80 1015.2
20260506033332 12 252 4.8 12.9 0.00 0.00 0.00 80 1015.2
20260506033227 12 242 4.8 12.9 0.00 0.00 0.00 80 1015.2
20260506033125 12 263 4.8 12.9 0.00 0.00 0.00 80 1015.2
20260506033025 12 246 4.8 12.9 0.00 0.00 0.00 80 1015.2
20260506032925 12 237 4.8 12.9 0.00 0.00 0.00 79 1015.3
20260506032823 12 248 4.8 12.9 0.00 0.00 0.00 79 1015.3
20260506032720 12 249 4.8 12.9 0.00 0.00 0.00 79 1015.3
20260506032618 12 246 4.8 12.9 0.00 0.00 0.00 79 1015.2
20260506032418 12 244 4.8 12.9 0.00 0.00 0.00 79 1015.3
20260506032317 12 261 3.2 11.3 0.00 0.00 0.00 79 1015.3
20260506032216 12 248 3.2 11.3 0.00 0.00 0.00 79 1015.2
20260506032116 12 240 3.2 11.3 0.00 0.00 0.00 79 1015.2
20260506032014 12 269 3.2 11.3 0.00 0.00 0.00 79 1015.2
20260506031914 12 245 3.2 11.3 0.00 0.00 0.00 79 1015.2
20260506031812 12 245 4.8 11.3 0.00 0.00 0.00 79 1015.2
20260506031707 12 245 4.8 11.3 0.00 0.00 0.00 79 1015.2
20260506031606 12 278 4.8 11.3 0.00 0.00 0.00 79 1015.2
20260506031507 12 247 4.8 11.3 0.00 0.00 0.00 79 1015.2
20260506031407 12 279 4.8 11.3 0.00 0.00 0.00 79 1015.2
20260506031305 13 264 4.8 11.3 0.00 0.00 0.00 79 1015.3
20260506031200 13 244 4.8 11.3 0.00 0.00 0.00 79 1015.2
20260506031100 13 250 4.8 11.3 0.00 0.00 0.00 79 1015.2
20260506031000 13 267 4.8 11.3 0.00 0.00 0.00 79 1015.2
20260506030901 13 269 4.8 11.3 0.00 0.00 0.00 79 1015.2
20260506030800 13 248 4.8 11.3 0.00 0.00 0.00 79 1015.3
20260506030654 13 284 4.8 12.9 0.00 0.00 0.00 79 1015.2
20260506030554 13 215 4.8 12.9 0.00 0.00 0.00 79 1015.2
20260506030454 13 233 4.8 12.9 0.00 0.00 0.00 79 1015.3
20260506030354 13 236 4.8 12.9 0.00 0.00 0.00 79 1015.3
20260506030252 13 222 4.8 12.9 0.00 0.00 0.00 78 1015.2
20260506030149 13 221 4.8 12.9 0.00 0.00 0.00 78 1015.3
20260506030045 13 221 4.8 12.9 0.00 0.00 0.00 78 1015.3
20260506025947 13 269 4.8 12.9 0.00 0.00 0.00 78 1015.3
20260506025847 13 261 4.8 12.9 0.00 0.00 0.00 78 1015.3
20260506025745 13 248 4.8 12.9 0.00 0.00 0.00 78 1015.3
20260506025646 13 249 4.8 12.9 0.00 0.00 0.00 78 1015.3
20260506025544 13 245 4.8 12.9 0.00 0.00 0.00 78 1015.3
20260506025444 13 245 4.8 12.9 0.00 0.00 0.00 78 1015.3
20260506025343 13 221 4.8 12.9 0.00 0.00 0.00 78 1015.3
20260506025240 13 271 4.8 12.9 0.00 0.00 0.00 78 1015.2
20260506025134 13 249 4.8 12.9 0.00 0.00 0.00 78 1015.2
20260506025034 13 255 4.8 12.9 0.00 0.00 0.00 78 1015.2
20260506024934 13 246 4.8 12.9 0.00 0.00 0.00 78 1015.2
20260506024834 13 248 4.8 12.9 0.00 0.00 0.00 78 1015.1
20260506024734 13 257 3.2 12.9 0.00 0.00 0.00 78 1015.1
20260506024631 13 238 3.2 12.9 0.00 0.00 0.00 78 1015.1
20260506024621 13 248 3.2 12.9 0.00 0.00 0.00 78 1015.1
20260506024428 13 272 3.2 12.9 0.00 0.00 0.00 78 1015.1
20260506024328 13 247 3.2 12.9 0.00 0.00 0.00 78 1015.1
20260506024227 13 265 1.6 12.9 0.00 0.00 0.00 78 1015.1
20260506024128 13 233 3.2 12.9 0.00 0.00 0.00 79 1015.1
20260506024026 13 292 3.2 12.9 0.00 0.00 0.00 79 1015.0
20260506023926 13 276 3.2 12.9 0.00 0.00 0.00 79 1015.0
20260506023824 13 263 3.2 12.9 0.00 0.00 0.00 79 1015.1
20260506023722 13 263 3.2 12.9 0.00 0.00 0.00 79 1015.0
20260506023620 13 273 3.2 12.9 0.00 0.00 0.00 79 1015.1
20260506023418 13 287 3.2 12.9 0.00 0.00 0.00 79 1015.1
20260506023319 13 287 3.2 12.9 0.00 0.00 0.00 79 1015.1
20260506023219 13 286 3.2 12.9 0.00 0.00 0.00 79 1015.1
20260506023119 13 244 3.2 12.9 0.00 0.00 0.00 79 1015.1
20260506023018 13 268 3.2 12.9 0.00 0.00 0.00 79 1015.1
20260506022918 13 240 3.2 6.4 0.00 0.00 0.00 79 1015.1
20260506022816 13 240 3.2 6.4 0.00 0.00 0.00 79 1015.1
20260506022716 13 240 3.2 6.4 0.00 0.00 0.00 78 1015.0
20260506022616 13 240 3.2 6.4 0.00 0.00 0.00 78 1015.1
20260506022414 13 240 3.2 6.4 0.00 0.00 0.00 78 1015.0
20260506022314 13 240 3.2 6.4 0.00 0.00 0.00 78 1015.0
20260506022213 13 258 3.2 6.4 0.00 0.00 0.00 78 1015.0
20260506022113 13 268 3.2 6.4 0.00 0.00 0.00 78 1015.0
20260506021911 13 238 3.2 6.4 0.00 0.00 0.00 78 1015.0
20260506021808 13 244 3.2 9.7 0.00 0.00 0.00 79 1015.0
20260506021708 13 226 3.2 14.5 0.00 0.00 0.00 79 1015.0
20260506021608 13 228 3.2 14.5 0.00 0.00 0.00 79 1015.0
20260506021408 13 269 3.2 14.5 0.00 0.00 0.00 79 1015.1
20260506021308 13 246 3.2 14.5 0.00 0.00 0.00 79 1015.1
20260506021208 13 278 3.2 14.5 0.00 0.00 0.00 79 1015.0
20260506021122 13 236 3.2 14.5 0.00 0.00 0.00 79 1015.1
20260506021112 13 277 4.8 14.5 0.00 0.00 0.00 79 1015.1
20260506020902 13 277 4.8 14.5 0.00 0.00 0.00 79 1015.1
20260506020802 13 263 4.8 11.3 0.00 0.00 0.00 79 1015.1
20260506020702 13 237 4.8 11.3 0.00 0.00 0.00 79 1015.1
20260506020602 13 237 4.8 11.3 0.00 0.00 0.00 79 1015.1
20260506020356 13 244 4.8 11.3 0.00 0.00 0.00 79 1015.2
20260506020256 13 277 4.8 11.3 0.00 0.00 0.00 79 1015.1
20260506020156 13 246 4.8 11.3 0.00 0.00 0.00 79 1015.1
20260506020114 13 251 4.8 11.3 0.00 0.00 0.00 79 1015.1
20260506015850 13 229 3.2 11.3 0.00 0.00 0.00 79 1015.1
20260506015750 13 265 4.8 11.3 0.00 0.00 0.00 79 1015.1
20260506015650 13 222 4.8 11.3 0.00 0.00 0.00 79 1015.1
20260506015604 13 242 4.8 11.3 0.00 0.00 0.00 79 1015.2
20260506015554 13 243 4.8 11.3 0.00 0.00 0.00 79 1015.2
20260506015344 13 278 4.8 11.3 0.00 0.00 0.00 79 1015.1
20260506015244 13 259 4.8 11.3 0.00 0.00 0.00 79 1015.1
20260506015144 13 255 4.8 11.3 0.00 0.00 0.00 79 1015.1
20260506015044 13 265 4.8 11.3 0.00 0.00 0.00 79 1015.0
20260506014840 13 225 4.8 12.9 0.00 0.00 0.00 78 1015.0
20260506014740 13 236 4.8 12.9 0.00 0.00 0.00 78 1015.1
20260506014640 13 245 4.8 12.9 0.00 0.00 0.00 78 1015.0
20260506014540 13 246 4.8 12.9 0.00 0.00 0.00 78 1015.0
20260506014333 13 246 4.8 12.9 0.00 0.00 0.00 78 1015.1
20260506014232 13 235 6.4 12.9 0.00 0.00 0.00 78 1015.0
20260506014032 13 275 6.4 12.9 0.00 0.00 0.00 79 1015.1
20260506013826 13 257 6.4 12.9 0.00 0.00 0.00 79 1015.1
20260506013726 13 240 4.8 12.9 0.00 0.00 0.00 79 1015.1
20260506013626 13 240 4.8 12.9 0.00 0.00 0.00 79 1015.1
20260506013527 13 261 4.8 12.9 0.00 0.00 0.00 79 1015.1
20260506013320 13 250 4.8 16.1 0.00 0.00 0.00 79 1015.1
20260506013220 13 239 4.8 16.1 0.00 0.00 0.00 79 1015.1
20260506013120 13 265 4.8 16.1 0.00 0.00 0.00 79 1015.1
20260506013034 13 238 4.8 16.1 0.00 0.00 0.00 79 1015.1
20260506013024 13 238 4.8 16.1 0.00 0.00 0.00 79 1015.1
20260506012819 13 215 4.8 16.1 0.00 0.00 0.00 79 1015.1
20260506012718 13 243 4.8 16.1 0.00 0.00 0.00 79 1015.1
20260506012618 13 243 4.8 16.1 0.00 0.00 0.00 78 1015.1
20260506012516 13 267 4.8 16.1 0.00 0.00 0.00 79 1015.1
20260506012312 13 247 3.2 11.3 0.00 0.00 0.00 79 1015.1
20260506012213 13 267 3.2 11.3 0.00 0.00 0.00 79 1015.1
20260506012112 13 233 3.2 11.3 0.00 0.00 0.00 79 1015.1
20260506012010 13 273 3.2 11.3 0.00 0.00 0.00 79 1015.1
20260506011804 13 244 3.2 11.3 0.00 0.00 0.00 79 1015.1
20260506011703 13 244 3.2 11.3 0.00 0.00 0.00 79 1015.1
20260506011603 13 261 4.8 11.3 0.00 0.00 0.00 79 1015.1
20260506011515 13 261 4.8 11.3 0.00 0.00 0.00 79 1015.1
20260506011505 13 253 4.8 11.3 0.00 0.00 0.00 79 1015.1
20260506011256 13 234 4.8 11.3 0.00 0.00 0.00 79 1015.1
20260506011155 13 210 4.8 11.3 0.00 0.00 0.00 79 1015.1
20260506011056 13 228 4.8 11.3 0.00 0.00 0.00 79 1015.1
20260506010955 13 258 4.8 11.3 0.00 0.00 0.00 79 1015.2
20260506010753 13 248 4.8 16.1 0.00 0.00 0.00 79 1015.1
20260506010650 13 284 4.8 16.1 0.00 0.00 0.00 78 1015.1
20260506010550 13 270 4.8 16.1 0.00 0.00 0.00 79 1015.1
20260506010450 13 282 4.8 16.1 0.00 0.00 0.00 79 1015.1
20260506010246 13 273 4.8 16.1 0.00 0.00 0.00 78 1015.1
20260506010144 13 261 4.8 16.1 0.00 0.00 0.00 79 1015.1
20260506010044 14 271 4.8 16.1 0.00 0.00 0.00 79 1015.1
20260506005944 14 271 4.8 16.1 0.00 0.00 0.00 79 1015.1
20260506005742 14 231 4.8 11.3 0.00 0.00 0.00 79 1015.1
20260506005642 14 237 4.8 11.3 0.00 0.00 0.00 79 1015.1
20260506005542 14 221 4.8 11.3 0.00 0.00 0.00 79 1015.1
20260506005441 14 238 4.8 11.3 0.00 0.00 0.00 79 1015.1
20260506005232 14 273 3.2 11.3 0.00 0.00 0.00 79 1015.1
20260506005132 14 263 3.2 9.7 0.00 0.00 0.00 79 1015.1
20260506005032 14 234 3.2 9.7 0.00 0.00 0.00 79 1015.1
20260506004932 14 246 4.8 12.9 0.00 0.00 0.00 79 1015.1
20260506004728 14 229 4.8 12.9 0.00 0.00 0.00 79 1015.1
20260506004626 14 274 3.2 12.9 0.00 0.00 0.00 79 1015.1
20260506004526 14 274 4.8 12.9 0.00 0.00 0.00 79 1015.1
20260506004440 14 249 4.8 12.9 0.00 0.00 0.00 79 1015.1
20260506004430 13 249 4.8 12.9 0.00 0.00 0.00 78 1015.1
20260506004222 13 238 4.8 12.9 0.00 0.00 0.00 79 1015.1
20260506004120 14 251 4.8 12.9 0.00 0.00 0.00 79 1015.1
20260506004020 14 273 4.8 12.9 0.00 0.00 0.00 79 1015.1
20260506003920 13 273 4.8 12.9 0.00 0.00 0.00 79 1015.1
20260506003714 13 268 6.4 12.9 0.00 0.00 0.00 79 1015.1
20260506003614 13 260 6.4 12.9 0.00 0.00 0.00 79 1015.1
20260506003514 13 246 6.4 12.9 0.00 0.00 0.00 79 1015.2
20260506003414 13 257 6.4 12.9 0.00 0.00 0.00 78 1015.2
20260506003208 13 260 6.4 12.9 0.00 0.00 0.00 78 1015.2
20260506003108 13 252 6.4 12.9 0.00 0.00 0.00 78 1015.2
20260506003008 13 264 6.4 12.9 0.00 0.00 0.00 78 1015.1
20260506002922 13 294 4.8 12.9 0.00 0.00 0.00 78 1015.2
20260506002912 13 257 4.8 12.9 0.00 0.00 0.00 78 1015.2
20260506002702 14 283 4.8 12.9 0.00 0.00 0.00 78 1015.1
20260506002602 14 281 4.8 12.9 0.00 0.00 0.00 79 1015.1
20260506002502 14 260 4.8 12.9 0.00 0.00 0.00 79 1015.1
20260506002402 14 287 4.8 12.9 0.00 0.00 0.00 79 1015.1
20260506002156 14 232 4.8 11.3 0.00 0.00 0.00 79 1015.2
20260506002056 14 223 4.8 11.3 0.00 0.00 0.00 78 1015.2
20260506001956 14 257 4.8 11.3 0.00 0.00 0.00 79 1015.2
20260506001856 14 261 4.8 11.3 0.00 0.00 0.00 79 1015.2
20260506001650 14 303 4.8 16.1 0.00 0.00 0.00 79 1015.2
20260506001550 14 231 4.8 16.1 0.00 0.00 0.00 79 1015.2
20260506001450 14 263 4.8 16.1 0.00 0.00 0.00 78 1015.1
20260506001403 14 267 4.8 16.1 0.00 0.00 0.00 78 1015.2
20260506001354 14 309 4.8 16.1 0.00 0.00 0.00 79 1015.1
20260506001146 14 286 4.8 16.1 0.00 0.00 0.00 78 1015.2
20260506001046 14 279 4.8 16.1 0.00 0.00 0.00 78 1015.2
20260506000946 14 248 6.4 16.1 0.00 0.00 0.00 78 1015.2
20260506000846 13 277 6.4 16.1 0.00 0.00 0.00 78 1015.2
20260506000641 14 246 4.8 12.9 0.00 0.00 0.00 78 1015.2
20260506000543 14 242 6.4 12.9 0.00 0.00 0.00 78 1015.2
20260506000440 13 242 6.4 12.9 0.00 0.00 0.00 78 1015.2
20260506000340 14 238 6.4 12.9 0.00 0.00 0.00 78 1015.2
20260506000132 14 254 6.4 12.9 0.00 0.00 0.00 78 1015.2
20260506000032 14 275 6.4 12.9 0.00 0.00 0.00 78 1015.2
20260505235932 14 296 6.4 12.9 0.00 0.00 0.00 78 1015.2
20260505235832 14 273 6.4 12.9 0.00 0.00 0.00 77 1015.2
20260505235626 14 239 6.4 14.5 0.00 0.00 0.00 77 1015.2
20260505235526 14 246 6.4 14.5 0.00 0.00 0.00 78 1015.2
20260505235426 14 258 6.4 14.5 0.00 0.00 0.00 78 1015.2
20260505235326 14 230 6.4 14.5 0.00 0.00 0.00 78 1015.2
20260505235120 14 244 6.4 14.5 0.00 0.00 0.00 78 1015.3
20260505235020 14 241 6.4 14.5 0.00 0.00 0.00 78 1015.2
20260505234920 14 232 6.4 14.5 0.00 0.00 0.00 78 1015.3
20260505234820 14 281 6.4 14.5 0.00 0.00 0.00 78 1015.3
20260505234618 14 243 6.4 14.5 0.00 0.00 0.00 78 1015.3
20260505234518 14 242 6.4 14.5 0.00 0.00 0.00 78 1015.3
20260505234416 14 258 6.4 14.5 0.00 0.00 0.00 78 1015.4
20260505234316 14 246 8.0 14.5 0.00 0.00 0.00 78 1015.4
20260505234108 14 239 6.4 14.5 0.00 0.00 0.00 78 1015.4
20260505234008 14 239 6.4 14.5 0.00 0.00 0.00 78 1015.4
20260505233908 14 251 6.4 14.5 0.00 0.00 0.00 78 1015.4
20260505233808 14 269 6.4 14.5 0.00 0.00 0.00 78 1015.4
20260505233602 14 252 4.8 14.5 0.00 0.00 0.00 78 1015.4
20260505233502 14 254 4.8 14.5 0.00 0.00 0.00 78 1015.4
20260505233401 14 232 4.8 11.3 0.00 0.00 0.00 78 1015.4
20260505233301 14 277 4.8 11.3 0.00 0.00 0.00 78 1015.4
20260505233056 14 260 4.8 11.3 0.00 0.00 0.00 78 1015.4
20260505232956 14 297 4.8 11.3 0.00 0.00 0.00 78 1015.4
20260505232856 14 219 4.8 11.3 0.00 0.00 0.00 78 1015.4
20260505232756 14 233 4.8 11.3 0.00 0.00 0.00 79 1015.4
20260505232552 14 269 6.4 11.3 0.00 0.00 0.00 79 1015.4
20260505232449 14 269 6.4 17.7 0.00 0.00 0.00 78 1015.4
20260505232350 14 269 8.0 17.7 0.00 0.00 0.00 78 1015.4
20260505232305 14 228 8.0 17.7 0.00 0.00 0.00 78 1015.4
20260505232253 14 249 8.0 17.7 0.00 0.00 0.00 78 1015.4
20260505232048 14 225 8.0 17.7 0.00 0.00 0.00 78 1015.4
20260505231948 14 242 8.0 17.7 0.00 0.00 0.00 78 1015.4
20260505231848 13 269 8.0 17.7 0.00 0.00 0.00 77 1015.4
20260505231746 13 235 9.7 17.7 0.00 0.00 0.00 77 1015.5
20260505231540 14 253 9.7 17.7 0.00 0.00 0.00 77 1015.5
20260505231439 14 254 9.7 16.1 0.00 0.00 0.00 77 1015.5
20260505231340 14 252 9.7 16.1 0.00 0.00 0.00 78 1015.5
20260505231239 14 222 9.7 16.1 0.00 0.00 0.00 78 1015.5
20260505231034 14 254 9.7 14.5 0.00 0.00 0.00 77 1015.5
20260505230934 14 246 9.7 14.5 0.00 0.00 0.00 77 1015.5
20260505230834 14 235 9.7 14.5 0.00 0.00 0.00 77 1015.5
20260505230734 14 250 8.0 14.5 0.00 0.00 0.00 77 1015.5
20260505230526 14 243 6.4 14.5 0.00 0.00 0.00 77 1015.5
20260505230426 14 247 6.4 14.5 0.00 0.00 0.00 77 1015.5
20260505230326 14 234 6.4 12.9 0.00 0.00 0.00 77 1015.5
20260505230240 14 229 4.8 12.9 0.00 0.00 0.00 77 1015.5
20260505230230 14 261 4.8 12.9 0.00 0.00 0.00 77 1015.5
20260505230032 14 227 4.8 12.9 0.00 0.00 0.00 77 1015.6
20260505225928 14 273 4.8 12.9 0.00 0.00 0.00 77 1015.5
20260505225828 14 290 4.8 12.9 0.00 0.00 0.00 78 1015.5
20260505225727 14 253 4.8 12.9 0.00 0.00 0.00 78 1015.6
20260505225519 14 308 4.8 12.9 0.00 0.00 0.00 78 1015.6
20260505225414 14 292 4.8 12.9 0.00 0.00 0.00 78 1015.6
20260505225314 14 277 4.8 12.9 0.00 0.00 0.00 78 1015.6
20260505225214 14 249 6.4 12.9 0.00 0.00 0.00 78 1015.6
20260505225007 14 242 6.4 16.1 0.00 0.00 0.00 78 1015.6
20260505224908 14 271 6.4 16.1 0.00 0.00 0.00 77 1015.6
20260505224807 14 230 6.4 16.1 0.00 0.00 0.00 77 1015.5
20260505224707 14 250 6.4 16.1 0.00 0.00 0.00 77 1015.6
20260505224504 14 231 6.4 16.1 0.00 0.00 0.00 77 1015.6
20260505224404 14 236 6.4 16.1 0.00 0.00 0.00 77 1015.6
20260505224304 14 245 6.4 16.1 0.00 0.00 0.00 77 1015.6
20260505224204 14 229 6.4 16.1 0.00 0.00 0.00 77 1015.6
20260505223958 14 238 8.0 16.1 0.00 0.00 0.00 77 1015.7
20260505223858 14 279 8.0 16.1 0.00 0.00 0.00 78 1015.6
20260505223758 14 276 8.0 16.1 0.00 0.00 0.00 78 1015.7
20260505223658 14 263 8.0 16.1 0.00 0.00 0.00 77 1015.7
20260505223451 14 233 8.0 16.1 0.00 0.00 0.00 77 1015.6
20260505223350 14 242 8.0 16.1 0.00 0.00 0.00 77 1015.7
20260505223250 14 246 8.0 16.1 0.00 0.00 0.00 77 1015.6
20260505223150 14 272 8.0 16.1 0.00 0.00 0.00 77 1015.7
20260505222944 14 275 8.0 16.1 0.00 0.00 0.00 77 1015.7
20260505222844 14 270 8.0 16.1 0.00 0.00 0.00 77 1015.6
20260505222744 14 260 8.0 16.1 0.00 0.00 0.00 77 1015.6
20260505222643 14 236 8.0 16.1 0.00 0.00 0.00 77 1015.7
20260505222438 14 226 9.7 16.1 0.00 0.00 0.00 76 1015.7
20260505222338 14 211 9.7 16.1 0.00 0.00 0.00 76 1015.7
20260505222238 14 222 9.7 16.1 0.00 0.00 0.00 76 1015.7
20260505222138 15 271 8.0 16.1 0.00 0.00 0.00 77 1015.7
20260505221934 15 272 8.0 14.5 0.00 0.00 0.00 77 1015.7
20260505221834 15 271 8.0 14.5 0.00 0.00 0.00 77 1015.8
20260505221734 15 262 8.0 14.5 0.00 0.00 0.00 77 1015.8
20260505221634 15 270 6.4 14.5 0.00 0.00 0.00 77 1015.8
20260505221426 15 259 6.4 14.5 0.00 0.00 0.00 77 1015.8
20260505221326 15 235 6.4 14.5 0.00 0.00 0.00 77 1015.8
20260505221225 15 287 6.4 14.5 0.00 0.00 0.00 77 1015.8
20260505221126 15 288 4.8 14.5 0.00 0.00 0.00 77 1015.8
20260505220920 15 252 4.8 11.3 0.00 0.00 0.00 77 1015.8
20260505220820 15 269 4.8 11.3 0.00 0.00 0.00 77 1015.8
20260505220720 15 280 4.8 11.3 0.00 0.00 0.00 77 1015.9
20260505220620 15 232 6.4 12.9 0.00 0.00 0.00 77 1015.8
20260505220416 15 269 6.4 17.7 0.00 0.00 0.00 77 1015.8
20260505220314 15 271 6.4 17.7 0.00 0.00 0.00 77 1015.8
20260505220214 15 273 8.0 17.7 0.00 0.00 0.00 77 1015.8
20260505220114 15 259 8.0 17.7 0.00 0.00 0.00 77 1015.9
20260505215909 14 217 8.0 17.7 0.00 0.00 0.00 76 1015.8
20260505215810 15 225 8.0 17.7 0.00 0.00 0.00 76 1015.8
20260505215709 15 269 8.0 17.7 0.00 0.00 0.00 76 1015.9
20260505215609 15 242 8.0 17.7 0.00 0.00 0.00 76 1015.8
20260505215404 15 221 8.0 14.5 0.00 0.00 0.00 76 1015.8
20260505215305 15 285 8.0 14.5 0.00 0.00 0.00 77 1015.8
20260505215202 15 254 6.4 14.5 0.00 0.00 0.00 77 1015.8
20260505215102 15 257 6.4 14.5 0.00 0.00 0.00 77 1015.8
20260505214900 15 273 6.4 19.3 0.00 0.00 0.00 77 1015.8
20260505214800 15 263 8.0 19.3 0.00 0.00 0.00 77 1015.8
20260505214700 15 271 8.0 19.3 0.00 0.00 0.00 77 1015.8
20260505214600 15 252 8.0 19.3 0.00 0.00 0.00 77 1015.7
20260505214500 15 282 8.0 19.3 0.00 0.00 0.00 77 1015.7
20260505214400 15 236 8.0 19.3 0.00 0.00 0.00 77 1015.8
20260505214300 15 304 8.0 19.3 0.00 0.00 0.00 77 1015.8
20260505214200 15 271 8.0 19.3 0.00 0.00 0.00 77 1015.8
20260505214100 15 270 9.7 19.3 0.00 0.00 0.00 77 1015.9
20260505214000 15 246 9.7 19.3 0.00 0.00 0.00 77 1015.9
20260505213905 15 259 9.7 19.3 0.00 0.00 0.00 77 1015.8
20260505213800 15 267 9.7 19.3 0.00 0.00 0.00 77 1015.9
20260505213700 14 265 9.7 20.9 0.00 0.00 0.00 77 1015.8
20260505213600 14 229 9.7 20.9 0.00 0.00 0.00 77 1015.8
20260505213500 14 218 11.3 20.9 0.00 0.00 0.00 77 1015.8
20260505213400 14 262 9.7 20.9 0.00 0.00 0.00 76 1015.8
20260505213300 14 238 9.7 20.9 0.00 0.00 0.00 76 1015.8
20260505213156 14 219 9.7 20.9 0.00 0.00 0.00 76 1015.8
20260505213054 15 253 9.7 20.9 0.00 0.00 0.00 76 1015.9
20260505212953 15 247 9.7 20.9 0.00 0.00 0.00 76 1015.9
20260505212853 15 238 8.0 20.9 0.00 0.00 0.00 76 1015.9
20260505212753 15 246 8.0 20.9 0.00 0.00 0.00 77 1015.9
20260505212648 15 240 8.0 17.7 0.00 0.00 0.00 76 1015.9
20260505212547 15 227 8.0 17.7 0.00 0.00 0.00 77 1015.9
20260505212447 15 248 8.0 17.7 0.00 0.00 0.00 77 1015.9
20260505212347 15 274 9.7 17.7 0.00 0.00 0.00 76 1015.9
20260505212248 15 190 9.7 19.3 0.00 0.00 0.00 76 1015.9
20260505212141 15 236 9.7 19.3 0.00 0.00 0.00 76 1015.9
20260505212100 15 242 9.7 19.3 0.00 0.00 0.00 76 1015.9
20260505211941 15 261 9.7 19.3 0.00 0.00 0.00 77 1015.9
20260505211841 15 263 11.3 19.3 0.00 0.00 0.00 77 1015.9
20260505211742 15 288 9.7 19.3 0.00 0.00 0.00 77 1015.9
20260505211642 15 246 11.3 19.3 0.00 0.00 0.00 76 1015.9
20260505211540 15 258 11.3 19.3 0.00 0.00 0.00 76 1015.8
20260505211440 15 257 9.7 19.3 0.00 0.00 0.00 75 1015.8
20260505211340 15 244 9.7 19.3 0.00 0.00 0.00 75 1015.8
20260505211239 15 252 8.0 19.3 0.00 0.00 0.00 76 1015.8
20260505211139 15 251 8.0 19.3 0.00 0.00 0.00 75 1015.8
20260505211040 15 250 6.4 19.3 0.00 0.00 0.00 75 1015.8
20260505210940 15 249 6.4 19.3 0.00 0.00 0.00 76 1015.8
20260505210840 15 244 6.4 17.7 0.00 0.00 0.00 76 1015.7
20260505210740 15 241 6.4 17.7 0.00 0.00 0.00 77 1015.7
20260505210640 15 254 6.4 17.7 0.00 0.00 0.00 77 1015.7
20260505210539 15 232 6.4 17.7 0.00 0.00 0.00 77 1015.7
20260505210433 15 232 8.0 17.7 0.00 0.00 0.00 77 1015.7
20260505210333 15 229 8.0 17.7 0.00 0.00 0.00 78 1015.8
20260505210233 15 248 8.0 17.7 0.00 0.00 0.00 78 1015.8
20260505210133 15 259 9.7 17.7 0.00 0.00 0.00 78 1015.7
20260505210033 15 256 9.7 17.7 0.00 0.00 0.00 78 1015.7
20260505205933 15 267 9.7 17.7 0.00 0.00 0.00 78 1015.8
20260505205833 14 292 9.7 17.7 0.00 0.00 0.00 77 1015.8
20260505205734 14 241 9.7 17.7 0.00 0.00 0.00 77 1015.8
20260505205634 14 232 9.7 17.7 0.00 0.00 0.00 76 1015.7
20260505205533 15 275 9.7 17.7 0.00 0.00 0.00 77 1015.8
20260505205433 15 242 8.0 17.7 0.00 0.00 0.00 77 1015.8
20260505205333 15 265 8.0 17.7 0.00 0.00 0.00 77 1015.7
20260505205229 15 269 8.0 17.7 0.00 0.00 0.00 77 1015.8
20260505205129 15 267 8.0 17.7 0.00 0.00 0.00 77 1015.8
20260505205029 15 266 8.0 17.7 0.00 0.00 0.00 78 1015.8
20260505204929 15 270 9.7 17.7 0.00 0.00 0.00 78 1015.9
20260505204829 14 211 9.7 17.7 0.00 0.00 0.00 78 1015.8
20260505204729 14 289 9.7 17.7 0.00 0.00 0.00 77 1015.9
20260505204629 14 262 11.3 17.7 0.00 0.00 0.00 77 1015.9
20260505204558 14 219 11.3 17.7 0.00 0.00 0.00 77 1015.8
20260505204430 14 247 11.3 17.7 0.00 0.00 0.00 77 1015.8
20260505204329 14 254 11.3 17.7 0.00 0.00 0.00 77 1015.9
20260505204230 14 279 11.3 17.7 0.00 0.00 0.00 77 1015.8
20260505204130 14 230 11.3 17.7 0.00 0.00 0.00 76 1015.9
20260505204030 15 241 11.3 17.7 0.00 0.00 0.00 77 1015.9
20260505203930 15 275 9.7 17.7 0.00 0.00 0.00 77 1016.0
20260505203830 15 244 9.7 17.7 0.00 0.00 0.00 77 1016.0
20260505203730 15 227 9.7 17.7 0.00 0.00 0.00 77 1015.9
20260505203630 15 244 8.0 17.7 0.00 0.00 0.00 77 1016.0
20260505203530 15 274 8.0 17.7 0.00 0.00 0.00 77 1016.0
20260505203430 15 250 8.0 17.7 0.00 0.00 0.00 77 1016.0
20260505203325 15 218 8.0 17.7 0.00 0.00 0.00 77 1016.0
20260505203225 15 229 8.0 17.7 0.00 0.00 0.00 77 1015.9
20260505203126 15 263 8.0 17.7 0.00 0.00 0.00 77 1016.0
20260505203026 15 270 8.0 17.7 0.00 0.00 0.00 77 1015.9
20260505202925 15 244 8.0 19.3 0.00 0.00 0.00 77 1015.9
20260505202825 15 239 8.0 19.3 0.00 0.00 0.00 78 1016.0
20260505202725 14 277 8.0 19.3 0.00 0.00 0.00 78 1016.0
20260505202625 14 229 8.0 19.3 0.00 0.00 0.00 78 1015.9
20260505202525 14 279 8.0 19.3 0.00 0.00 0.00 77 1015.9
20260505202425 14 293 8.0 19.3 0.00 0.00 0.00 77 1015.9
20260505202325 14 213 8.0 19.3 0.00 0.00 0.00 77 1015.9
20260505202226 14 244 8.0 19.3 0.00 0.00 0.00 77 1015.9
20260505202126 14 244 8.0 19.3 0.00 0.00 0.00 77 1015.9
20260505202026 14 244 8.0 19.3 0.00 0.00 0.00 77 1015.9
20260505201926 14 292 8.0 16.1 0.00 0.00 0.00 77 1015.9
20260505201826 14 234 8.0 16.1 0.00 0.00 0.00 77 1015.8
20260505201726 14 252 8.0 16.1 0.00 0.00 0.00 77 1015.8
20260505201626 14 212 8.0 16.1 0.00 0.00 0.00 77 1015.9
20260505201526 14 254 8.0 16.1 0.00 0.00 0.00 77 1015.8
20260505201422 14 259 8.0 16.1 0.00 0.00 0.00 77 1015.8
20260505201322 14 280 8.0 16.1 0.00 0.00 0.00 78 1015.8
20260505201222 15 260 8.0 16.1 0.00 0.00 0.00 78 1015.9
20260505201121 14 250 8.0 16.1 0.00 0.00 0.00 78 1015.9
20260505201053 14 237 6.4 16.1 0.00 0.00 0.00 78 1015.9
20260505200921 14 261 8.0 16.1 0.00 0.00 0.00 77 1015.9
20260505200821 14 220 8.0 16.1 0.00 0.00 0.00 77 1015.9
20260505200721 14 265 8.0 16.1 0.00 0.00 0.00 77 1015.8
20260505200621 14 252 8.0 16.1 0.00 0.00 0.00 77 1015.9
20260505200553 14 290 8.0 16.1 0.00 0.00 0.00 77 1015.9
20260505200421 14 228 8.0 16.1 0.00 0.00 0.00 77 1015.9
20260505200321 14 236 8.0 16.1 0.00 0.00 0.00 77 1015.8
20260505200221 14 248 6.4 14.5 0.00 0.00 0.00 78 1015.8
20260505200122 14 303 6.4 14.5 0.00 0.00 0.00 78 1015.8
20260505200022 14 294 8.0 14.5 0.00 0.00 0.00 77 1015.9
20260505195922 14 254 8.0 16.1 0.00 0.00 0.00 77 1015.9
20260505195822 14 236 8.0 16.1 0.00 0.00 0.00 78 1015.9
20260505195721 14 271 8.0 16.1 0.00 0.00 0.00 78 1015.8
20260505195622 14 249 8.0 16.1 0.00 0.00 0.00 77 1015.8
20260505195518 14 263 8.0 16.1 0.00 0.00 0.00 77 1015.8
20260505195418 14 250 8.0 17.7 0.00 0.00 0.00 77 1015.8
20260505195318 14 277 8.0 17.7 0.00 0.00 0.00 77 1015.8
20260505195218 14 284 8.0 17.7 0.00 0.00 0.00 77 1015.8
20260505195118 14 254 8.0 17.7 0.00 0.00 0.00 76 1015.8
20260505195018 14 266 8.0 17.7 0.00 0.00 0.00 76 1015.7
20260505194917 14 249 8.0 17.7 0.00 0.00 0.00 76 1015.7
20260505194818 14 238 8.0 17.7 0.00 0.00 0.00 76 1015.7
20260505194718 14 242 8.0 17.7 0.00 0.00 0.00 76 1015.8
20260505194618 14 254 6.4 17.7 0.00 0.00 0.00 76 1015.7
20260505194518 15 236 6.4 17.7 0.00 0.00 0.00 76 1015.7
20260505194418 15 258 6.4 16.1 0.00 0.00 0.00 76 1015.7
20260505194318 15 248 6.4 16.1 0.00 0.00 0.00 76 1015.7
20260505194218 15 250 6.4 16.1 0.00 0.00 0.00 76 1015.7
20260505194118 15 233 6.4 16.1 0.00 0.00 0.00 76 1015.7
20260505194018 15 279 6.4 16.1 0.00 0.00 0.00 76 1015.7
20260505193917 15 245 4.8 11.3 0.00 0.00 0.00 76 1015.7
20260505193818 15 288 4.8 11.3 0.00 0.00 0.00 76 1015.7
20260505193717 15 277 4.8 11.3 0.00 0.00 0.00 76 1015.7
20260505193613 15 290 4.8 11.3 0.00 0.00 0.00 76 1015.7
20260505193513 15 255 4.8 11.3 0.00 0.00 0.00 76 1015.7
20260505193415 15 265 4.8 11.3 0.00 0.00 0.00 76 1015.6
20260505193314 15 301 4.8 11.3 0.00 0.00 0.00 76 1015.7